Observation data for Romero 11SSW on 12/10/2019      Previous  Date       Current Mesonet Observations  Soil Data  Daily Summary Page  Observations in Plain Language
KBR1 100600Z 07002KT 00/M06 A3015 RMK A01 T00011055  RH  066%=      5-min Rain = 0
KBR1 100601Z 07002KT 00/06 A3015 RMK A01 T00000-56  RH  066%=      5-min Rain = 0
KBR1 100602Z 07002KT 00/M05 A3015 RMK A01 T00011054  RH  067%=      5-min Rain = 0
KBR1 100603Z 07003KT 00/M05 A3015 RMK A01 T00011053  RH  067%=      5-min Rain = 0
KBR1 100604Z 06003KT 00/M05 A3015 RMK A01 T00011053  RH  067%=      5-min Rain = 0
KBR1 100605Z 06002KT 00/M05 A3015 RMK A01 T00011053  RH  067%=      5-min Rain = 0
KBR1 100606Z 06002KT 00/M05 A3015 RMK A01 T00011052  RH  067%=      5-min Rain = 0
KBR1 100607Z 06002KT 00/M05 A3015 RMK A01 T00011053  RH  067%=      5-min Rain = 0
KBR1 100608Z 05002KT 00/M05 A3015 RMK A01 T00011053  RH  067%=      5-min Rain = 0
KBR1 100609Z 05002KT 00/M05 A3015 RMK A01 T00011052  RH  068%=      5-min Rain = 0
KBR1 100610Z 05002KT 00/M05 A3015 RMK A01 T00011052  RH  068%=      5-min Rain = 0
KBR1 100611Z 05002KT 00/M05 A3015 RMK A01 T00011052  RH  068%=      5-min Rain = 0
KBR1 100612Z 06002KT 00/M05 A3015 RMK A01 T00011051  RH  068%=      5-min Rain = 0
KBR1 100613Z 07003KT 00/05 A3015 RMK A01 T00000-52  RH  068%=      5-min Rain = 0
KBR1 100614Z 07003KT 00/05 A3015 RMK A01 T00000-52  RH  068%=      5-min Rain = 0
KBR1 100615Z 08003KT 00/05 A3015 RMK A01 T00000-52  RH  068%=      5-min Rain = 0
KBR1 100616Z 08003KT 00/M05 A3015 RMK A01 T00011052  RH  068%=      5-min Rain = 0
KBR1 100617Z 08003KT 00/05 A3015 RMK A01 T00000-53  RH  067%=      5-min Rain = 0
KBR1 100618Z 07003KT 00/05 A3015 RMK A01 T00000-53  RH  067%=      5-min Rain = 0
KBR1 100619Z 08003KT 00/05 A3015 RMK A01 T00000-53  RH  067%=      5-min Rain = 0
KBR1 100620Z 08003KT 00/05 A3015 RMK A01 T00000-54  RH  067%=      5-min Rain = 0
KBR1 100621Z 07003KT 00/M05 A3015 RMK A01 T00011054  RH  067%=      5-min Rain = 0
KBR1 100622Z 07003KT 00/M05 A3015 RMK A01 T00011054  RH  067%=      5-min Rain = 0
KBR1 100623Z 07003KT 00/M05 A3015 RMK A01 T00011053  RH  067%=      5-min Rain = 0
KBR1 100624Z 08003KT 00/M05 A3015 RMK A01 T00011052  RH  067%=      5-min Rain = 0
KBR1 100625Z 08003KT 00/M05 A3015 RMK A01 T00011052  RH  068%=      5-min Rain = 0
KBR1 100626Z 08003KT 00/M05 A3015 RMK A01 T00011053  RH  067%=      5-min Rain = 0
KBR1 100627Z 08003KT 00/M05 A3015 RMK A01 T00011053  RH  067%=      5-min Rain = 0
KBR1 100628Z 08003KT 00/M05 A3015 RMK A01 T00011053  RH  067%=      5-min Rain = 0
KBR1 100629Z 08003KT 00/M05 A3015 RMK A01 T00011052  RH  067%=      5-min Rain = 0
KBR1 100630Z 08003KT 00/M05 A3015 RMK A01 T00011053  RH  067%=      5-min Rain = 0
KBR1 100631Z 08003KT 00/M05 A3015 RMK A01 T00011053  RH  067%=      5-min Rain = 0
KBR1 100632Z 08003KT 00/M05 A3015 RMK A01 T00011053  RH  067%=      5-min Rain = 0
KBR1 100633Z 08003KT 00/M05 A3015 RMK A01 T00011053  RH  067%=      5-min Rain = 0
KBR1 100634Z 07003KT 00/M05 A3015 RMK A01 T00011053  RH  067%=      5-min Rain = 0
KBR1 100635Z 07003KT 00/M05 A3015 RMK A01 T00011053  RH  067%=      5-min Rain = 0
KBR1 100636Z 07003KT 00/M05 A3015 RMK A01 T00011053  RH  067%=      5-min Rain = 0
KBR1 100637Z 07003KT 00/M05 A3015 RMK A01 T00011052  RH  068%=      5-min Rain = 0
KBR1 100638Z 07003KT 00/M05 A3015 RMK A01 T00011052  RH  068%=      5-min Rain = 0
KBR1 100639Z 07003KT 00/M05 A3015 RMK A01 T00011053  RH  067%=      5-min Rain = 0
KBR1 100640Z 08003KT 00/05 A3015 RMK A01 T00000-53  RH  067%=      5-min Rain = 0
KBR1 100641Z 08003KT 00/05 A3015 RMK A01 T00000-52  RH  068%=      5-min Rain = 0
KBR1 100642Z 08003KT 00/05 A3015 RMK A01 T00000-52  RH  068%=      5-min Rain = 0
KBR1 100643Z 08003KT 00/05 A3015 RMK A01 T00-00-52  RH  068%=      5-min Rain = 0
KBR1 100644Z 09002KT 00/05 A3015 RMK A01 T00-00-53  RH  068%=      5-min Rain = 0
KBR1 100645Z 09002KT 00/05 A3015 RMK A01 T00-00-52  RH  068%=      5-min Rain = 0
KBR1 100646Z 09002KT M00/M05 A3015 RMK A01 T10011053  RH  068%=      5-min Rain = 0
KBR1 100647Z 09002KT 00/05 A3015 RMK A01 T00-00-52  RH  068%=      5-min Rain = 0
KBR1 100648Z 08002KT M00/M05 A3015 RMK A01 T10011053  RH  068%=      5-min Rain = 0
KBR1 100649Z 07002KT M00/M05 A3015 RMK A01 T10011054  RH  068%=      5-min Rain = 0
KBR1 100650Z 06002KT M00/M05 A3015 RMK A01 T10011054  RH  067%=      5-min Rain = 0
KBR1 100651Z 05002KT M00/M05 A3015 RMK A01 T10021054  RH  068%=      5-min Rain = 0
KBR1 100652Z 04002KT M00/M05 A3015 RMK A01 T10021053  RH  068%=      5-min Rain = 0
KBR1 100653Z 03002KT M00/M05 A3016 RMK A01 T10021052  RH  069%=      5-min Rain = 0
KBR1 100654Z 02002KT M00/M05 A3016 RMK A01 T10021052  RH  069%=      5-min Rain = 0
KBR1 100655Z 02002KT M00/M05 A3016 RMK A01 T10031052  RH  070%=      5-min Rain = 0
KBR1 100656Z 03002KT M00/M05 A3016 RMK A01 T10031052  RH  070%=      5-min Rain = 0
KBR1 100657Z 03002KT M00/M05 A3016 RMK A01 T10041052  RH  070%=      5-min Rain = 0
KBR1 100658Z 03003KT M00/M05 A3016 RMK A01 T10041052  RH  070%=      5-min Rain = 0
KBR1 100659Z 02003KT M01/M05 A3016 RMK A01 T10061053  RH  070%=      5-min Rain = 0
KBR1 100700Z 01003KT M01/M05 A3016 RMK A01 T10061054  RH  070%=      5-min Rain = 0
KBR1 100701Z 36004KT M01/M05 A3016 RMK A01 T10071054  RH  071%=      5-min Rain = 0
KBR1 100702Z 35005KT M01/M05 A3016 RMK A01 T10081053  RH  071%=      5-min Rain = 0
KBR1 100703Z 35006KT M01/M05 A3016 RMK A01 T10101053  RH  073%=      5-min Rain = 0
KBR1 100704Z 35006KT M01/M05 A3016 RMK A01 T10111052  RH  074%=      5-min Rain = 0
KBR1 100705Z 36006KT M01/M05 A3016 RMK A01 T10121052  RH  074%=      5-min Rain = 0
KBR1 100706Z 00005KT M01/M05 A3016 RMK A01 T10131052  RH  075%=      5-min Rain = 0
KBR1 100707Z 00005KT M01/M05 A3016 RMK A01 T10141052  RH  075%=      5-min Rain = 0
KBR1 100708Z 01005KT M02/M05 A3016 RMK A01 T10151052  RH  075%=      5-min Rain = 0
KBR1 100709Z 01005KT M02/M05 A3016 RMK A01 T10151052  RH  076%=      5-min Rain = 0
KBR1 100710Z 01004KT M02/M05 A3016 RMK A01 T10151052  RH  076%=      5-min Rain = 0
KBR1 100711Z 01004KT M02/M05 A3016 RMK A01 T10161052  RH  076%=      5-min Rain = 0
KBR1 100712Z 00004KT M02/M05 A3016 RMK A01 T10161052  RH  076%=      5-min Rain = 0
KBR1 100713Z 00004KT M02/M05 A3016 RMK A01 T10161053  RH  076%=      5-min Rain = 0
KBR1 100714Z 00004KT M02/M05 A3016 RMK A01 T10161053  RH  076%=      5-min Rain = 0
KBR1 100715Z 00004KT M02/M05 A3016 RMK A01 T10161053  RH  076%=      5-min Rain = 0
KBR1 100716Z 36005KT M02/M05 A3016 RMK A01 T10171053  RH  076%=      5-min Rain = 0
KBR1 100717Z 00005KT M02/M05 A3016 RMK A01 T10181054  RH  076%=      5-min Rain = 0
KBR1 100718Z 00005KT M02/M05 A3016 RMK A01 T10191054  RH  077%=      5-min Rain = 0
KBR1 100719Z 00006KT M02/M06 A3016 RMK A01 T10191055  RH  077%=      5-min Rain = 0
KBR1 100720Z 00006KT M02/M06 A3016 RMK A01 T10201055  RH  077%=      5-min Rain = 0
KBR1 100721Z 36005KT M02/M06 A3016 RMK A01 T10201056  RH  076%=      5-min Rain = 0
KBR1 100722Z 00005KT M02/M06 A3017 RMK A01 T10201056  RH  076%=      5-min Rain = 0
KBR1 100723Z 00004KT M02/M06 A3017 RMK A01 T10211057  RH  076%=      5-min Rain = 0
KBR1 100724Z 36004KT M02/M06 A3017 RMK A01 T10211057  RH  076%=      5-min Rain = 0
KBR1 100725Z 36003KT M02/M06 A3016 RMK A01 T10211058  RH  076%=      5-min Rain = 0
KBR1 100726Z 00003KT M02/M06 A3016 RMK A01 T10211058  RH  076%=      5-min Rain = 0
KBR1 100727Z 00003KT M02/M06 A3016 RMK A01 T10221059  RH  076%=      5-min Rain = 0
KBR1 100728Z 01003KT M02/M06 A3016 RMK A01 T10221059  RH  076%=      5-min Rain = 0
KBR1 100729Z 00003KT M02/M06 A3016 RMK A01 T10221059  RH  076%=      5-min Rain = 0
KBR1 100730Z 00003KT M02/M06 A3016 RMK A01 T10221060  RH  075%=      5-min Rain = 0
KBR1 100731Z 36004KT M02/M06 A3016 RMK A01 T10221061  RH  075%=      5-min Rain = 0
KBR1 100732Z 36004KT M02/M06 A3017 RMK A01 T10221062  RH  074%=      5-min Rain = 0
KBR1 100733Z 35004KT M02/M06 A3017 RMK A01 T10221062  RH  074%=      5-min Rain = 0
KBR1 100734Z 35003KT M02/M06 A3017 RMK A01 T10221062  RH  074%=      5-min Rain = 0
KBR1 100735Z 35003KT M02/M06 A3017 RMK A01 T10221062  RH  074%=      5-min Rain = 0
KBR1 100736Z 35002KT M02/M06 A3017 RMK A01 T10221062  RH  074%=      5-min Rain = 0
KBR1 100737Z 35002KT M02/M06 A3017 RMK A01 T10221063  RH  074%=      5-min Rain = 0
KBR1 100738Z 35002KT M02/M06 A3017 RMK A01 T10221064  RH  073%=      5-min Rain = 0
KBR1 100739Z 35003KT M02/M06 A3017 RMK A01 T10221064  RH  073%=      5-min Rain = 0
KBR1 100740Z 35003KT M02/M06 A3017 RMK A01 T10211064  RH  073%=      5-min Rain = 0
KBR1 100741Z 35003KT M02/M06 A3017 RMK A01 T10211064  RH  073%=      5-min Rain = 0
KBR1 100742Z 35003KT M02/M06 A3017 RMK A01 T10211064  RH  073%=      5-min Rain = 0
KBR1 100743Z 34003KT M02/M06 A3017 RMK A01 T10221064  RH  073%=      5-min Rain = 0
KBR1 100744Z 34003KT M02/M06 A3017 RMK A01 T10221064  RH  073%=      5-min Rain = 0
KBR1 100745Z 34002KT M02/M07 A3017 RMK A01 T10231065  RH  073%=      5-min Rain = 0
KBR1 100746Z 33002KT M02/M07 A3017 RMK A01 T10221065  RH  073%=      5-min Rain = 0
KBR1 100747Z 33002KT M02/M07 A3017 RMK A01 T10231065  RH  073%=      5-min Rain = 0
KBR1 100748Z 32002KT M02/M07 A3017 RMK A01 T10231065  RH  073%=      5-min Rain = 0
KBR1 100749Z 32002KT M02/M07 A3017 RMK A01 T10231065  RH  073%=      5-min Rain = 0
KBR1 100750Z 32002KT M02/M07 A3017 RMK A01 T10231066  RH  073%=      5-min Rain = 0
KBR1 100751Z 32003KT M02/M07 A3017 RMK A01 T10231066  RH  073%=      5-min Rain = 0
KBR1 100752Z 32003KT M02/M07 A3017 RMK A01 T10241066  RH  073%=      5-min Rain = 0
KBR1 100753Z 32003KT M03/M07 A3017 RMK A01 T10251066  RH  073%=      5-min Rain = 0
KBR1 100754Z 32003KT M03/M07 A3017 RMK A01 T10261066  RH  074%=      5-min Rain = 0
KBR1 100755Z 32003KT M03/M07 A3017 RMK A01 T10271066  RH  074%=      5-min Rain = 0
KBR1 100756Z 31002KT M03/M07 A3017 RMK A01 T10271066  RH  075%=      5-min Rain = 0
KBR1 100757Z 32002KT M03/M07 A3017 RMK A01 T10271065  RH  075%=      5-min Rain = 0
KBR1 100758Z 31001KT M03/M07 A3017 RMK A01 T10281065  RH  076%=      5-min Rain = 0
KBR1 100759Z 30002KT M03/M06 A3017 RMK A01 T10281063  RH  077%=      5-min Rain = 0
KBR1 100800Z 31002KT M03/M06 A3017 RMK A01 T10291063  RH  077%=      5-min Rain = 0
KBR1 100801Z 31002KT M03/M06 A3017 RMK A01 T10291063  RH  077%=      5-min Rain = 0
KBR1 100802Z 31002KT M03/M06 A3017 RMK A01 T10301064  RH  077%=      5-min Rain = 0
KBR1 100803Z 31002KT M03/M06 A3017 RMK A01 T10301064  RH  077%=      5-min Rain = 0
KBR1 100804Z 32002KT M03/M06 A3017 RMK A01 T10301064  RH  077%=      5-min Rain = 0
KBR1 100805Z 32002KT M03/M06 A3017 RMK A01 T10301064  RH  077%=      5-min Rain = 0
KBR1 100806Z 33002KT M03/M06 A3017 RMK A01 T10301064  RH  077%=      5-min Rain = 0
KBR1 100807Z 33002KT M03/M07 A3017 RMK A01 T10301065  RH  077%=      5-min Rain = 0
KBR1 100808Z 33002KT M03/M07 A3017 RMK A01 T10301065  RH  077%=      5-min Rain = 0
KBR1 100809Z 33003KT M03/M06 A3017 RMK A01 T10301064  RH  077%=      5-min Rain = 0
KBR1 100810Z 33003KT M03/M06 A3017 RMK A01 T10301063  RH  078%=      5-min Rain = 0
KBR1 100811Z 33003KT M03/M06 A3017 RMK A01 T10291063  RH  078%=      5-min Rain = 0
KBR1 100812Z 33003KT M03/M06 A3017 RMK A01 T10291064  RH  077%=      5-min Rain = 0
KBR1 100813Z 34003KT M03/M06 A3017 RMK A01 T10281064  RH  077%=      5-min Rain = 0
KBR1 100814Z 33002KT M03/M06 A3017 RMK A01 T10291064  RH  077%=      5-min Rain = 0
KBR1 100815Z 33002KT M03/M06 A3017 RMK A01 T10281063  RH  077%=      5-min Rain = 0
KBR1 100816Z 34001KT M03/M06 A3017 RMK A01 T10281062  RH  078%=      5-min Rain = 0
KBR1 100817Z 34001KT M03/M06 A3017 RMK A01 T10291061  RH  078%=      5-min Rain = 0
KBR1 100818Z 34002KT M03/M06 A3017 RMK A01 T10291061  RH  079%=      5-min Rain = 0
KBR1 100819Z 34002KT M03/M06 A3017 RMK A01 T10291061  RH  079%=      5-min Rain = 0
KBR1 100820Z 34002KT M03/M06 A3017 RMK A01 T10291061  RH  079%=      5-min Rain = 0
KBR1 100821Z 34002KT M03/M06 A3017 RMK A01 T10291062  RH  079%=      5-min Rain = 0
KBR1 100822Z 34002KT M03/M06 A3017 RMK A01 T10291061  RH  079%=      5-min Rain = 0
KBR1 100823Z 34003KT M03/M06 A3017 RMK A01 T10291060  RH  079%=      5-min Rain = 0
KBR1 100824Z 34003KT M03/M06 A3017 RMK A01 T10291059  RH  080%=      5-min Rain = 0
KBR1 100825Z 34004KT M03/M06 A3017 RMK A01 T10291058  RH  081%=      5-min Rain = 0
KBR1 100826Z 34004KT M03/M06 A3017 RMK A01 T10301059  RH  080%=      5-min Rain = 0
KBR1 100827Z 34003KT M03/M06 A3017 RMK A01 T10291060  RH  079%=      5-min Rain = 0
KBR1 100828Z 34003KT M03/M06 A3017 RMK A01 T10281059  RH  079%=      5-min Rain = 0
KBR1 100829Z 34004KT M03/M06 A3017 RMK A01 T10281058  RH  080%=      5-min Rain = 0
KBR1 100830Z 34004KT M03/M06 A3017 RMK A01 T10271058  RH  079%=      5-min Rain = 0
KBR1 100831Z 33003KT M03/M06 A3017 RMK A01 T10261058  RH  079%=      5-min Rain = 0
KBR1 100832Z 33003KT M03/M06 A3017 RMK A01 T10251057  RH  079%=      5-min Rain = 0
KBR1 100833Z 33003KT M03/M06 A3017 RMK A01 T10251058  RH  078%=      5-min Rain = 0
KBR1 100834Z 34003KT M03/M06 A3017 RMK A01 T10251058  RH  078%=      5-min Rain = 0
KBR1 100835Z 35003KT M02/M06 A3017 RMK A01 T10241058  RH  078%=      5-min Rain = 0
KBR1 100836Z 35003KT M02/M06 A3017 RMK A01 T10241056  RH  078%=      5-min Rain = 0
KBR1 100837Z 35003KT M02/M06 A3018 RMK A01 T10231055  RH  079%=      5-min Rain = 0
KBR1 100838Z 35003KT M02/M06 A3018 RMK A01 T10241056  RH  078%=      5-min Rain = 0
KBR1 100839Z 35003KT M02/M06 A3018 RMK A01 T10241056  RH  078%=      5-min Rain = 0
KBR1 100840Z 35002KT M02/M06 A3018 RMK A01 T10241057  RH  078%=      5-min Rain = 0
KBR1 100841Z 34003KT M02/M06 A3018 RMK A01 T10241057  RH  078%=      5-min Rain = 0
KBR1 100842Z 34002KT M02/M06 A3018 RMK A01 T10241058  RH  077%=      5-min Rain = 0
KBR1 100843Z 35002KT M02/M06 A3018 RMK A01 T10231061  RH  075%=      5-min Rain = 0
KBR1 100844Z 34003KT M02/M06 A3018 RMK A01 T10221061  RH  074%=      5-min Rain = 0
KBR1 100845Z 35003KT M02/M06 A3018 RMK A01 T10211061  RH  074%=      5-min Rain = 0
KBR1 100846Z 35003KT M02/M06 A3018 RMK A01 T10201061  RH  074%=      5-min Rain = 0
KBR1 100847Z 36002KT M02/M06 A3018 RMK A01 T10201060  RH  074%=      5-min Rain = 0
KBR1 100848Z 00002KT M02/M06 A3018 RMK A01 T10201060  RH  074%=      5-min Rain = 0
KBR1 100849Z 00002KT M02/M06 A3018 RMK A01 T10201060  RH  074%=      5-min Rain = 0
KBR1 100850Z 36002KT M02/M06 A3018 RMK A01 T10191061  RH  073%=      5-min Rain = 0
KBR1 100851Z 34002KT M02/M06 A3018 RMK A01 T10191062  RH  072%=      5-min Rain = 0
KBR1 100852Z 34002KT M02/M06 A3018 RMK A01 T10181062  RH  072%=      5-min Rain = 0
KBR1 100853Z 34002KT M02/M06 A3018 RMK A01 T10181062  RH  072%=      5-min Rain = 0
KBR1 100854Z 34003KT M02/M06 A3018 RMK A01 T10181062  RH  072%=      5-min Rain = 0
KBR1 100855Z 35003KT M02/M06 A3018 RMK A01 T10181062  RH  072%=      5-min Rain = 0
KBR1 100856Z 35002KT M02/M06 A3018 RMK A01 T10171061  RH  072%=      5-min Rain = 0
KBR1 100857Z 36002KT M02/M06 A3018 RMK A01 T10171061  RH  072%=      5-min Rain = 0
KBR1 100858Z 35002KT M02/M06 A3019 RMK A01 T10171057  RH  074%=      5-min Rain = 0
KBR1 100859Z 35002KT M02/M06 A3019 RMK A01 T10181056  RH  075%=      5-min Rain = 0
KBR1 100900Z 35002KT M02/M06 A3019 RMK A01 T10181056  RH  076%=      5-min Rain = 0
KBR1 100901Z 34002KT M02/M06 A3019 RMK A01 T10191057  RH  075%=      5-min Rain = 0
KBR1 100902Z 34002KT M02/M06 A3019 RMK A01 T10191058  RH  075%=      5-min Rain = 0
KBR1 100903Z 34002KT M02/M06 A3019 RMK A01 T10181058  RH  074%=      5-min Rain = 0
KBR1 100904Z 34002KT M02/M06 A3019 RMK A01 T10181058  RH  074%=      5-min Rain = 0
KBR1 100905Z 34002KT M02/M06 A3019 RMK A01 T10181058  RH  074%=      5-min Rain = 0
KBR1 100906Z 34002KT M02/M06 A3019 RMK A01 T10171058  RH  074%=      5-min Rain = 0
KBR1 100907Z 35002KT M02/M06 A3019 RMK A01 T10171057  RH  074%=      5-min Rain = 0
KBR1 100908Z 36001KT M02/M06 A3019 RMK A01 T10171055  RH  075%=      5-min Rain = 0
KBR1 100909Z 00001KT M02/M05 A3019 RMK A01 T10171053  RH  076%=      5-min Rain = 0
KBR1 100910Z 00001KT M02/M05 A3019 RMK A01 T10171051  RH  077%=      5-min Rain = 0
KBR1 100911Z 00001KT M02/M05 A3019 RMK A01 T10171050  RH  078%=      5-min Rain = 0
KBR1 100912Z 36002KT M02/M05 A3019 RMK A01 T10171050  RH  078%=      5-min Rain = 0
KBR1 100913Z 35002KT M02/M05 A3019 RMK A01 T10171050  RH  078%=      5-min Rain = 0
KBR1 100914Z 35002KT M02/M05 A3019 RMK A01 T10171050  RH  078%=      5-min Rain = 0
KBR1 100915Z 34002KT M02/M05 A3019 RMK A01 T10171051  RH  078%=      5-min Rain = 0
KBR1 100916Z 34002KT M02/M05 A3019 RMK A01 T10171050  RH  078%=      5-min Rain = 0
KBR1 100917Z 34002KT M02/M05 A3019 RMK A01 T10161050  RH  078%=      5-min Rain = 0
KBR1 100918Z 34002KT M02/M05 A3019 RMK A01 T10161049  RH  078%=      5-min Rain = 0
KBR1 100919Z 34002KT M02/M05 A3019 RMK A01 T10161049  RH  078%=      5-min Rain = 0
KBR1 100920Z 34002KT M02/M05 A3019 RMK A01 T10161049  RH  078%=      5-min Rain = 0
KBR1 100921Z 34002KT M02/M05 A3019 RMK A01 T10161049  RH  078%=      5-min Rain = 0
KBR1 100922Z 34001KT M02/M05 A3019 RMK A01 T10151048  RH  078%=      5-min Rain = 0
KBR1 100923Z 35001KT M02/M05 A3019 RMK A01 T10151047  RH  078%=      5-min Rain = 0
KBR1 100924Z 35001KT M02/M05 A3019 RMK A01 T10151047  RH  079%=      5-min Rain = 0
KBR1 100925Z 35001KT M01/M05 A3019 RMK A01 T10141047  RH  079%=      5-min Rain = 0
KBR1 100926Z 34001KT M01/M05 A3019 RMK A01 T10141047  RH  078%=      5-min Rain = 0
KBR1 100927Z 34001KT M01/M05 A3019 RMK A01 T10141047  RH  078%=      5-min Rain = 0
KBR1 100928Z 34001KT M01/M05 A3019 RMK A01 T10141048  RH  077%=      5-min Rain = 0
KBR1 100929Z 33001KT M01/M05 A3019 RMK A01 T10141049  RH  077%=      5-min Rain = 0
KBR1 100930Z 33001KT M01/M05 A3019 RMK A01 T10131049  RH  077%=      5-min Rain = 0
KBR1 100931Z 33000KT M01/M05 A3019 RMK A01 T10131050  RH  076%=      5-min Rain = 0
KBR1 100932Z 00000KT M01/M05 A3018 RMK A01 T10121048  RH  077%=      5-min Rain = 0
KBR1 100933Z 00000KT M01/M05 A3018 RMK A01 T10121048  RH  077%=      5-min Rain = 0
KBR1 100934Z 00000KT M01/M05 A3018 RMK A01 T10121047  RH  077%=      5-min Rain = 0
KBR1 100935Z 00000KT M01/M05 A3018 RMK A01 T10121047  RH  077%=      5-min Rain = 0
KBR1 100936Z 00000KT M01/M05 A3018 RMK A01 T10121047  RH  077%=      5-min Rain = 0
KBR1 100937Z 00000KT M01/M05 A3018 RMK A01 T10111046  RH  077%=      5-min Rain = 0
KBR1 100938Z 00000KT M01/M05 A3018 RMK A01 T10111045  RH  078%=      5-min Rain = 0
KBR1 100939Z 00000KT M01/M04 A3018 RMK A01 T10111044  RH  078%=      5-min Rain = 0
KBR1 100940Z 00000KT M01/M05 A3018 RMK A01 T10111046  RH  077%=      5-min Rain = 0
KBR1 100941Z 00000KT M01/M05 A3018 RMK A01 T10111047  RH  076%=      5-min Rain = 0
KBR1 100942Z 00000KT M01/M05 A3018 RMK A01 T10111047  RH  076%=      5-min Rain = 0
KBR1 100943Z 00000KT M01/M05 A3018 RMK A01 T10111046  RH  077%=      5-min Rain = 0
KBR1 100944Z 00000KT M01/M05 A3018 RMK A01 T10111045  RH  078%=      5-min Rain = 0
KBR1 100945Z 00000KT M01/M04 A3018 RMK A01 T10111044  RH  078%=      5-min Rain = 0
KBR1 100946Z 00000KT M01/M04 A3018 RMK A01 T10111044  RH  078%=      5-min Rain = 0
KBR1 100947Z 00000KT M01/M04 A3018 RMK A01 T10111044  RH  078%=      5-min Rain = 0
KBR1 100948Z 00000KT M01/M04 A3018 RMK A01 T10111043  RH  079%=      5-min Rain = 0
KBR1 100949Z 00000KT M01/M04 A3018 RMK A01 T10111043  RH  079%=      5-min Rain = 0
KBR1 100950Z 00000KT M01/M04 A3018 RMK A01 T10121041  RH  080%=      5-min Rain = 0
KBR1 100951Z 23000KT M01/M04 A3018 RMK A01 T10121042  RH  080%=      5-min Rain = 0
KBR1 100952Z 23001KT M01/M04 A3018 RMK A01 T10121043  RH  079%=      5-min Rain = 0
KBR1 100953Z 23001KT M01/M04 A3018 RMK A01 T10131043  RH  080%=      5-min Rain = 0
KBR1 100954Z 23001KT M01/M04 A3018 RMK A01 T10131042  RH  080%=      5-min Rain = 0
KBR1 100955Z 23001KT M01/M04 A3018 RMK A01 T10131042  RH  081%=      5-min Rain = 0
KBR1 100956Z 22001KT M01/M04 A3018 RMK A01 T10141042  RH  081%=      5-min Rain = 0
KBR1 100957Z 22001KT M02/M04 A3018 RMK A01 T10151043  RH  081%=      5-min Rain = 0
KBR1 100958Z 22001KT M02/M04 A3018 RMK A01 T10151042  RH  082%=      5-min Rain = 0
KBR1 100959Z 22001KT M02/M04 A3018 RMK A01 T10161042  RH  082%=      5-min Rain = 0
KBR1 101000Z 22001KT M02/M04 A3018 RMK A01 T10171042  RH  083%=      5-min Rain = 0
KBR1 101001Z 22002KT M02/M04 A3018 RMK A01 T10181042  RH  084%=      5-min Rain = 0
KBR1 101002Z 22002KT M02/M04 A3018 RMK A01 T10181042  RH  084%=      5-min Rain = 0
KBR1 101003Z 23001KT M02/M04 A3018 RMK A01 T10181042  RH  084%=      5-min Rain = 0
KBR1 101004Z 24001KT M02/M04 A3018 RMK A01 T10191042  RH  084%=      5-min Rain = 0
KBR1 101005Z 25001KT M02/M04 A3018 RMK A01 T10201043  RH  084%=      5-min Rain = 0
KBR1 101006Z 26001KT M02/M04 A3018 RMK A01 T10211044  RH  084%=      5-min Rain = 0
KBR1 101007Z 26001KT M02/M05 A3018 RMK A01 T10211046  RH  083%=      5-min Rain = 0
KBR1 101008Z 27001KT M02/M05 A3018 RMK A01 T10211046  RH  083%=      5-min Rain = 0
KBR1 101009Z 28001KT M02/M05 A3018 RMK A01 T10211047  RH  082%=      5-min Rain = 0
KBR1 101010Z 28001KT M02/M05 A3018 RMK A01 T10211047  RH  082%=      5-min Rain = 0
KBR1 101011Z 29001KT M02/M05 A3018 RMK A01 T10211047  RH  083%=      5-min Rain = 0
KBR1 101012Z 30001KT M02/M05 A3018 RMK A01 T10211047  RH  083%=      5-min Rain = 0
KBR1 101013Z 30001KT M02/M05 A3018 RMK A01 T10211047  RH  082%=      5-min Rain = 0
KBR1 101014Z 31001KT M02/M05 A3018 RMK A01 T10211047  RH  082%=      5-min Rain = 0
KBR1 101015Z 31001KT M02/M05 A3018 RMK A01 T10211047  RH  082%=      5-min Rain = 0
KBR1 101016Z 31001KT M02/M05 A3018 RMK A01 T10211049  RH  081%=      5-min Rain = 0
KBR1 101017Z 30001KT M02/M05 A3018 RMK A01 T10211050  RH  080%=      5-min Rain = 0
KBR1 101018Z 30001KT M02/M05 A3018 RMK A01 T10211051  RH  080%=      5-min Rain = 0
KBR1 101019Z 29001KT M02/M05 A3018 RMK A01 T10211052  RH  079%=      5-min Rain = 0
KBR1 101020Z 29001KT M02/M05 A3018 RMK A01 T10221053  RH  079%=      5-min Rain = 0
KBR1 101021Z 29001KT M02/M05 A3018 RMK A01 T10221054  RH  079%=      5-min Rain = 0
KBR1 101022Z 29001KT M02/M05 A3018 RMK A01 T10231054  RH  079%=      5-min Rain = 0
KBR1 101023Z 29001KT M02/M05 A3018 RMK A01 T10231054  RH  079%=      5-min Rain = 0
KBR1 101024Z 30001KT M02/M05 A3018 RMK A01 T10231054  RH  079%=      5-min Rain = 0
KBR1 101025Z 30001KT M02/M05 A3018 RMK A01 T10231054  RH  080%=      5-min Rain = 0
KBR1 101026Z 30001KT M02/M05 A3018 RMK A01 T10241054  RH  080%=      5-min Rain = 0
KBR1 101027Z 31001KT M02/M05 A3018 RMK A01 T10241053  RH  080%=      5-min Rain = 0
KBR1 101028Z 31001KT M03/M05 A3018 RMK A01 T10251054  RH  081%=      5-min Rain = 0
KBR1 101029Z 31001KT M03/M05 A3018 RMK A01 T10251054  RH  081%=      5-min Rain = 0
KBR1 101030Z 31001KT M03/M05 A3018 RMK A01 T10261054  RH  081%=      5-min Rain = 0
KBR1 101031Z 31002KT M03/M05 A3018 RMK A01 T10261052  RH  082%=      5-min Rain = 0
KBR1 101032Z 30002KT M03/M05 A3018 RMK A01 T10261051  RH  083%=      5-min Rain = 0
KBR1 101033Z 31001KT M03/M05 A3018 RMK A01 T10261050  RH  083%=      5-min Rain = 0
KBR1 101034Z 30002KT M03/M05 A3018 RMK A01 T10261050  RH  084%=      5-min Rain = 0
KBR1 101035Z 30002KT M03/M05 A3018 RMK A01 T10261050  RH  084%=      5-min Rain = 0
KBR1 101036Z 30002KT M03/M05 A3018 RMK A01 T10271050  RH  084%=      5-min Rain = 0
KBR1 101037Z 30002KT M03/M05 A3018 RMK A01 T10271050  RH  084%=      5-min Rain = 0
KBR1 101038Z 30002KT M03/M05 A3018 RMK A01 T10281050  RH  085%=      5-min Rain = 0
KBR1 101039Z 31002KT M03/M05 A3018 RMK A01 T10281050  RH  085%=      5-min Rain = 0
KBR1 101040Z 31002KT M03/M05 A3018 RMK A01 T10291051  RH  085%=      5-min Rain = 0
KBR1 101041Z 32002KT M03/M05 A3018 RMK A01 T10291051  RH  085%=      5-min Rain = 0
KBR1 101042Z 32002KT M03/M05 A3018 RMK A01 T10291051  RH  085%=      5-min Rain = 0
KBR1 101043Z 32002KT M03/M05 A3018 RMK A01 T10291052  RH  084%=      5-min Rain = 0
KBR1 101044Z 32002KT M03/M05 A3018 RMK A01 T10291052  RH  084%=      5-min Rain = 0
KBR1 101045Z 32002KT M03/M05 A3018 RMK A01 T10291052  RH  084%=      5-min Rain = 0
KBR1 101046Z 32002KT M03/M05 A3018 RMK A01 T10301052  RH  084%=      5-min Rain = 0
KBR1 101047Z 32002KT M03/M05 A3018 RMK A01 T10301052  RH  085%=      5-min Rain = 0
KBR1 101048Z 32002KT M03/M05 A3018 RMK A01 T10301052  RH  085%=      5-min Rain = 0
KBR1 101049Z 33002KT M03/M05 A3018 RMK A01 T10301052  RH  085%=      5-min Rain = 0
KBR1 101050Z 33002KT M03/M05 A3018 RMK A01 T10311053  RH  085%=      5-min Rain = 0
KBR1 101051Z 33002KT M03/M05 A3018 RMK A01 T10311053  RH  085%=      5-min Rain = 0
KBR1 101052Z 33003KT M03/M05 A3018 RMK A01 T10311053  RH  085%=      5-min Rain = 0
KBR1 101053Z 32003KT M03/M05 A3018 RMK A01 T10321054  RH  085%=      5-min Rain = 0
KBR1 101054Z 32003KT M03/M05 A3018 RMK A01 T10331054  RH  085%=      5-min Rain = 0
KBR1 101055Z 32003KT M03/M06 A3018 RMK A01 T10341055  RH  085%=      5-min Rain = 0
KBR1 101056Z 32003KT M03/M06 A3018 RMK A01 T10341055  RH  085%=      5-min Rain = 0
KBR1 101057Z 33003KT M03/M06 A3018 RMK A01 T10341055  RH  085%=      5-min Rain = 0
KBR1 101058Z 32003KT M03/M06 A3018 RMK A01 T10341055  RH  085%=      5-min Rain = 0
KBR1 101059Z 32003KT M03/M06 A3018 RMK A01 T10341055  RH  085%=      5-min Rain = 0
KBR1 101100Z 32003KT M04/M06 A3018 RMK A01 T10351056  RH  085%=      5-min Rain = 0
KBR1 101101Z 32003KT M04/M06 A3018 RMK A01 T10351056  RH  085%=      5-min Rain = 0
KBR1 101102Z 32003KT M04/M06 A3018 RMK A01 T10351056  RH  085%=      5-min Rain = 0
KBR1 101103Z 32003KT M04/M06 A3018 RMK A01 T10361056  RH  086%=      5-min Rain = 0
KBR1 101104Z 32003KT M04/M06 A3018 RMK A01 T10361056  RH  086%=      5-min Rain = 0
KBR1 101105Z 32003KT M04/M06 A3018 RMK A01 T10361057  RH  086%=      5-min Rain = 0
KBR1 101106Z 32003KT M04/M06 A3018 RMK A01 T10371058  RH  085%=      5-min Rain = 0
KBR1 101107Z 32003KT M04/M06 A3018 RMK A01 T10371058  RH  085%=      5-min Rain = 0
KBR1 101108Z 32003KT M04/M06 A3019 RMK A01 T10381059  RH  085%=      5-min Rain = 0
KBR1 101109Z 32003KT M04/M06 A3018 RMK A01 T10381060  RH  085%=      5-min Rain = 0
KBR1 101110Z 32003KT M04/M06 A3018 RMK A01 T10371061  RH  084%=      5-min Rain = 0
KBR1 101111Z 31003KT M04/M06 A3018 RMK A01 T10371061  RH  083%=      5-min Rain = 0
KBR1 101112Z 31003KT M04/M06 A3018 RMK A01 T10381062  RH  083%=      5-min Rain = 0
KBR1 101113Z 32003KT M04/M06 A3018 RMK A01 T10381063  RH  083%=      5-min Rain = 0
KBR1 101114Z 32003KT M04/M06 A3018 RMK A01 T10381063  RH  083%=      5-min Rain = 0
KBR1 101115Z 32003KT M04/M06 A3018 RMK A01 T10391063  RH  083%=      5-min Rain = 0
KBR1 101116Z 32003KT M04/M06 A3018 RMK A01 T10391064  RH  083%=      5-min Rain = 0
KBR1 101117Z 33003KT M04/M06 A3018 RMK A01 T10391063  RH  083%=      5-min Rain = 0
KBR1 101118Z 32003KT M04/M06 A3018 RMK A01 T10401064  RH  083%=      5-min Rain = 0
KBR1 101119Z 33003KT M04/M06 A3018 RMK A01 T10401064  RH  083%=      5-min Rain = 0
KBR1 101120Z 33003KT M04/M07 A3018 RMK A01 T10411065  RH  083%=      5-min Rain = 0
KBR1 101121Z 33004KT M04/M07 A3019 RMK A01 T10411065  RH  083%=      5-min Rain = 0
KBR1 101122Z 32004KT M04/M07 A3019 RMK A01 T10411065  RH  083%=      5-min Rain = 0
KBR1 101123Z 32004KT M04/M07 A3019 RMK A01 T10401065  RH  083%=      5-min Rain = 0
KBR1 101124Z 32004KT M04/M07 A3019 RMK A01 T10401065  RH  083%=      5-min Rain = 0
KBR1 101125Z 32004KT M04/M07 A3019 RMK A01 T10391065  RH  082%=      5-min Rain = 0
KBR1 101126Z 32004KT M04/M07 A3019 RMK A01 T10391065  RH  082%=      5-min Rain = 0
KBR1 101127Z 32003KT M04/M07 A3019 RMK A01 T10381065  RH  082%=      5-min Rain = 0
KBR1 101128Z 32003KT M04/M07 A3019 RMK A01 T10381066  RH  081%=      5-min Rain = 0
KBR1 101129Z 32003KT M04/M07 A3019 RMK A01 T10381066  RH  081%=      5-min Rain = 0
KBR1 101130Z 32002KT M04/M07 A3019 RMK A01 T10381066  RH  081%=      5-min Rain = 0
KBR1 101131Z 34003KT M04/M07 A3019 RMK A01 T10381066  RH  081%=      5-min Rain = 0
KBR1 101132Z 33002KT M04/M07 A3019 RMK A01 T10381067  RH  081%=      5-min Rain = 0
KBR1 101133Z 33003KT M04/M07 A3019 RMK A01 T10391068  RH  080%=      5-min Rain = 0
KBR1 101134Z 32003KT M04/M07 A3019 RMK A01 T10391068  RH  080%=      5-min Rain = 0
KBR1 101135Z 32002KT M04/M07 A3019 RMK A01 T10391067  RH  081%=      5-min Rain = 0
KBR1 101136Z 32002KT M04/M07 A3019 RMK A01 T10391068  RH  081%=      5-min Rain = 0
KBR1 101137Z 31002KT M04/M07 A3019 RMK A01 T10391068  RH  080%=      5-min Rain = 0
KBR1 101138Z 31002KT M04/M07 A3019 RMK A01 T10401069  RH  080%=      5-min Rain = 0
KBR1 101139Z 32002KT M04/M07 A3019 RMK A01 T10401069  RH  080%=      5-min Rain = 0
KBR1 101140Z 32002KT M04/M07 A3019 RMK A01 T10411070  RH  080%=      5-min Rain = 0
KBR1 101141Z 32002KT M04/M07 A3019 RMK A01 T10411070  RH  080%=      5-min Rain = 0
KBR1 101142Z 32002KT M04/M07 A3019 RMK A01 T10411070  RH  080%=      5-min Rain = 0
KBR1 101143Z 31001KT M04/M07 A3019 RMK A01 T10411070  RH  080%=      5-min Rain = 0
KBR1 101144Z 30001KT M04/M07 A3019 RMK A01 T10411071  RH  080%=      5-min Rain = 0
KBR1 101145Z 30001KT M04/M07 A3019 RMK A01 T10411071  RH  079%=      5-min Rain = 0
KBR1 101146Z 30001KT M04/M07 A3019 RMK A01 T10411071  RH  079%=      5-min Rain = 0
KBR1 101147Z 30001KT M04/M07 A3019 RMK A01 T10401071  RH  079%=      5-min Rain = 0
KBR1 101148Z 30002KT M04/M07 A3019 RMK A01 T10401071  RH  079%=      5-min Rain = 0
KBR1 101149Z 30002KT M04/M07 A3019 RMK A01 T10401072  RH  079%=      5-min Rain = 0
KBR1 101150Z 30002KT M04/M07 A3019 RMK A01 T10401072  RH  079%=      5-min Rain = 0
KBR1 101151Z 30002KT M04/M07 A3019 RMK A01 T10401072  RH  079%=      5-min Rain = 0
KBR1 101152Z 30002KT M04/M07 A3019 RMK A01 T10401072  RH  078%=      5-min Rain = 0
KBR1 101153Z 31002KT M04/M07 A3019 RMK A01 T10401072  RH  078%=      5-min Rain = 0
KBR1 101154Z 32002KT M04/M07 A3019 RMK A01 T10401073  RH  078%=      5-min Rain = 0
KBR1 101155Z 32002KT M04/M07 A3019 RMK A01 T10401073  RH  078%=      5-min Rain = 0
KBR1 101156Z 32002KT M04/M07 A3019 RMK A01 T10401073  RH  078%=      5-min Rain = 0
KBR1 101157Z 32002KT M04/M07 A3019 RMK A01 T10401073  RH  078%=      5-min Rain = 0
KBR1 101158Z 32002KT M04/M07 A3019 RMK A01 T10391073  RH  077%=      5-min Rain = 0
KBR1 101159Z 32002KT M04/M07 A3019 RMK A01 T10391073  RH  077%=      5-min Rain = 0
KBR1 101200Z 31002KT M04/M07 A3019 RMK A01 T10391073  RH  077%=      5-min Rain = 0
KBR1 101201Z 31003KT M04/M07 A3019 RMK A01 T10391074  RH  077%=      5-min Rain = 0
KBR1 101202Z 32002KT M04/M07 A3019 RMK A01 T10391074  RH  077%=      5-min Rain = 0
KBR1 101203Z 32002KT M04/M07 A3019 RMK A01 T10391074  RH  076%=      5-min Rain = 0
KBR1 101204Z 32002KT M04/M07 A302 RMK A01 T10381074  RH  076%=      5-min Rain = 0
KBR1 101205Z 32002KT M04/M07 A302 RMK A01 T10381074  RH  076%=      5-min Rain = 0
KBR1 101206Z 31002KT M04/M08 A302 RMK A01 T10391075  RH  076%=      5-min Rain = 0
KBR1 101207Z 31002KT M04/M08 A302 RMK A01 T10391075  RH  076%=      5-min Rain = 0
KBR1 101208Z 31002KT M04/M08 A302 RMK A01 T10401075  RH  076%=      5-min Rain = 0
KBR1 101209Z 31002KT M04/M08 A302 RMK A01 T10401075  RH  077%=      5-min Rain = 0
KBR1 101210Z 31002KT M04/M08 A302 RMK A01 T10411075  RH  077%=      5-min Rain = 0
KBR1 101211Z 32003KT M04/M08 A302 RMK A01 T10411075  RH  077%=      5-min Rain = 0
KBR1 101212Z 32003KT M04/M08 A302 RMK A01 T10411075  RH  077%=      5-min Rain = 0
KBR1 101213Z 32002KT M04/M07 A302 RMK A01 T10411074  RH  077%=      5-min Rain = 0
KBR1 101214Z 32002KT M04/M08 A302 RMK A01 T10411075  RH  077%=      5-min Rain = 0
KBR1 101215Z 32003KT M04/M08 A302 RMK A01 T10411075  RH  077%=      5-min Rain = 0
KBR1 101216Z 32002KT M04/M08 A302 RMK A01 T10421075  RH  077%=      5-min Rain = 0
KBR1 101217Z 32002KT M04/M08 A3021 RMK A01 T10431076  RH  078%=      5-min Rain = 0
KBR1 101218Z 32002KT M04/M08 A3021 RMK A01 T10431076  RH  078%=      5-min Rain = 0
KBR1 101219Z 32002KT M04/M08 A3021 RMK A01 T10431076  RH  078%=      5-min Rain = 0
KBR1 101220Z 32002KT M04/M08 A3021 RMK A01 T10441076  RH  078%=      5-min Rain = 0
KBR1 101221Z 31002KT M04/M08 A3021 RMK A01 T10431076  RH  078%=      5-min Rain = 0
KBR1 101222Z 31003KT M04/M08 A3021 RMK A01 T10431076  RH  078%=      5-min Rain = 0
KBR1 101223Z 31003KT M04/M08 A3021 RMK A01 T10431076  RH  078%=      5-min Rain = 0
KBR1 101224Z 32003KT M04/M08 A3021 RMK A01 T10431077  RH  078%=      5-min Rain = 0
KBR1 101225Z 32003KT M04/M08 A3021 RMK A01 T10441077  RH  077%=      5-min Rain = 0
KBR1 101226Z 32003KT M04/M08 A3021 RMK A01 T10431077  RH  077%=      5-min Rain = 0
KBR1 101227Z 32003KT M04/M08 A3021 RMK A01 T10441078  RH  077%=      5-min Rain = 0
KBR1 101228Z 31003KT M04/M08 A3021 RMK A01 T10431077  RH  077%=      5-min Rain = 0
KBR1 101229Z 31003KT M04/M08 A3021 RMK A01 T10431078  RH  077%=      5-min Rain = 0
KBR1 101230Z 32003KT M04/M08 A3021 RMK A01 T10431078  RH  077%=      5-min Rain = 0
KBR1 101231Z 32003KT M04/M08 A3021 RMK A01 T10441078  RH  077%=      5-min Rain = 0
KBR1 101232Z 32003KT M04/M08 A3021 RMK A01 T10441079  RH  077%=      5-min Rain = 0
KBR1 101233Z 33003KT M04/M08 A3021 RMK A01 T10441079  RH  077%=      5-min Rain = 0
KBR1 101234Z 32003KT M05/M08 A3021 RMK A01 T10451080  RH  077%=      5-min Rain = 0
KBR1 101235Z 33003KT M05/M08 A3021 RMK A01 T10451080  RH  077%=      5-min Rain = 0
KBR1 101236Z 33003KT M05/M08 A3021 RMK A01 T10451080  RH  077%=      5-min Rain = 0
KBR1 101237Z 33003KT M05/M08 A3021 RMK A01 T10461081  RH  077%=      5-min Rain = 0
KBR1 101238Z 33003KT M05/M08 A3021 RMK A01 T10471081  RH  077%=      5-min Rain = 0
KBR1 101239Z 33003KT M05/M08 A3021 RMK A01 T10471081  RH  077%=      5-min Rain = 0
KBR1 101240Z 32003KT M05/M08 A3021 RMK A01 T10471080  RH  077%=      5-min Rain = 0
KBR1 101241Z 33003KT M05/M08 A3021 RMK A01 T10461080  RH  077%=      5-min Rain = 0
KBR1 101242Z 32003KT M05/M08 A3021 RMK A01 T10471080  RH  077%=      5-min Rain = 0
KBR1 101243Z 32003KT M05/M08 A3021 RMK A01 T10461080  RH  077%=      5-min Rain = 0
KBR1 101244Z 32003KT M05/M08 A3021 RMK A01 T10461080  RH  077%=      5-min Rain = 0
KBR1 101245Z 32003KT M05/M08 A3021 RMK A01 T10461081  RH  077%=      5-min Rain = 0
KBR1 101246Z 32003KT M05/M08 A3021 RMK A01 T10461080  RH  077%=      5-min Rain = 0
KBR1 101247Z 32003KT M05/M08 A3021 RMK A01 T10461080  RH  077%=      5-min Rain = 0
KBR1 101248Z 32003KT M05/M08 A3021 RMK A01 T10461080  RH  077%=      5-min Rain = 0
KBR1 101249Z 32003KT M05/M08 A3021 RMK A01 T10461081  RH  077%=      5-min Rain = 0
KBR1 101250Z 32004KT M05/M08 A3021 RMK A01 T10461081  RH  077%=      5-min Rain = 0
KBR1 101251Z 32004KT M05/M08 A3021 RMK A01 T10461081  RH  077%=      5-min Rain = 0
KBR1 101252Z 32003KT M05/M08 A3021 RMK A01 T10461081  RH  077%=      5-min Rain = 0
KBR1 101253Z 32003KT M05/M08 A3021 RMK A01 T10461081  RH  077%=      5-min Rain = 0
KBR1 101254Z 32003KT M05/M08 A3021 RMK A01 T10471082  RH  076%=      5-min Rain = 0
KBR1 101255Z 32003KT M05/M08 A3021 RMK A01 T10481083  RH  076%=      5-min Rain = 0
KBR1 101256Z 32003KT M05/M08 A3021 RMK A01 T10481083  RH  076%=      5-min Rain = 0
KBR1 101257Z 32004KT M05/M08 A3021 RMK A01 T10481083  RH  076%=      5-min Rain = 0
KBR1 101258Z 32003KT M05/M08 A3021 RMK A01 T10481083  RH  076%=      5-min Rain = 0
KBR1 101259Z 32003KT M05/M08 A3021 RMK A01 T10491084  RH  076%=      5-min Rain = 0
KBR1 101300Z 32003KT M05/M08 A3021 RMK A01 T10491084  RH  076%=      5-min Rain = 0
KBR1 101301Z 32003KT M05/M08 A3021 RMK A01 T10491084  RH  077%=      5-min Rain = 0
KBR1 101302Z 31004KT M05/M08 A3021 RMK A01 T10501084  RH  077%=      5-min Rain = 0
KBR1 101303Z 31003KT M05/M08 A3021 RMK A01 T10491083  RH  077%=      5-min Rain = 0
KBR1 101304Z 31003KT M05/M08 A3021 RMK A01 T10471082  RH  077%=      5-min Rain = 0
KBR1 101305Z 30003KT M05/M08 A3021 RMK A01 T10461082  RH  076%=      5-min Rain = 0
KBR1 101306Z 31003KT M05/M08 A3021 RMK A01 T10461082  RH  076%=      5-min Rain = 0
KBR1 101307Z 31003KT M05/M08 A3021 RMK A01 T10461083  RH  076%=      5-min Rain = 0
KBR1 101308Z 30003KT M05/M08 A3021 RMK A01 T10461083  RH  076%=      5-min Rain = 0
KBR1 101309Z 30003KT M05/M08 A3021 RMK A01 T10461083  RH  076%=      5-min Rain = 0
KBR1 101310Z 31003KT M05/M08 A3021 RMK A01 T10471083  RH  076%=      5-min Rain = 0
KBR1 101311Z 30003KT M05/M08 A3021 RMK A01 T10471083  RH  076%=      5-min Rain = 0
KBR1 101312Z 31003KT M05/M08 A3021 RMK A01 T10481084  RH  076%=      5-min Rain = 0
KBR1 101313Z 30003KT M05/M08 A3021 RMK A01 T10481084  RH  076%=      5-min Rain = 0
KBR1 101314Z 30002KT M05/M08 A3021 RMK A01 T10491084  RH  076%=      5-min Rain = 0
KBR1 101315Z 30002KT M05/M08 A3021 RMK A01 T10491084  RH  077%=      5-min Rain = 0
KBR1 101316Z 30002KT M05/M09 A3021 RMK A01 T10501085  RH  077%=      5-min Rain = 0
KBR1 101317Z 30003KT M05/M09 A3021 RMK A01 T10501085  RH  077%=      5-min Rain = 0
KBR1 101318Z 30003KT M05/M09 A3021 RMK A01 T10511085  RH  077%=      5-min Rain = 0
KBR1 101319Z 30003KT M05/M09 A3021 RMK A01 T10511085  RH  077%=      5-min Rain = 0
KBR1 101320Z 31003KT M05/M09 A3022 RMK A01 T10521085  RH  077%=      5-min Rain = 0
KBR1 101321Z 31003KT M05/M09 A3022 RMK A01 T10521085  RH  078%=      5-min Rain = 0
KBR1 101322Z 32002KT M05/M09 A3022 RMK A01 T10521085  RH  078%=      5-min Rain = 0
KBR1 101323Z 31002KT M05/M08 A3022 RMK A01 T10521084  RH  078%=      5-min Rain = 0
KBR1 101324Z 31002KT M05/M08 A3022 RMK A01 T10511084  RH  078%=      5-min Rain = 0
KBR1 101325Z 31002KT M05/M09 A3022 RMK A01 T10501085  RH  077%=      5-min Rain = 0
KBR1 101326Z 31002KT M05/M09 A3022 RMK A01 T10511085  RH  077%=      5-min Rain = 0
KBR1 101327Z 31003KT M05/M09 A3022 RMK A01 T10511085  RH  077%=      5-min Rain = 0
KBR1 101328Z 31003KT M05/M09 A3022 RMK A01 T10511085  RH  077%=      5-min Rain = 0
KBR1 101329Z 31003KT M05/M09 A3022 RMK A01 T10511086  RH  077%=      5-min Rain = 0
KBR1 101330Z 31003KT M05/M09 A3022 RMK A01 T10501086  RH  076%=      5-min Rain = 0
KBR1 101331Z 31003KT M05/M09 A3022 RMK A01 T10501086  RH  076%=      5-min Rain = 0
KBR1 101332Z 31003KT M05/M09 A3022 RMK A01 T10501087  RH  076%=      5-min Rain = 0
KBR1 101333Z 31003KT M05/M09 A3022 RMK A01 T10521088  RH  076%=      5-min Rain = 0
KBR1 101334Z 32003KT M05/M09 A3022 RMK A01 T10521088  RH  076%=      5-min Rain = 0
KBR1 101335Z 32003KT M05/M09 A3022 RMK A01 T10521088  RH  076%=      5-min Rain = 0
KBR1 101336Z 31003KT M05/M09 A3022 RMK A01 T10521088  RH  076%=      5-min Rain = 0
KBR1 101337Z 31003KT M05/M09 A3022 RMK A01 T10531088  RH  076%=      5-min Rain = 0
KBR1 101338Z 32003KT M05/M09 A3022 RMK A01 T10531088  RH  076%=      5-min Rain = 0
KBR1 101339Z 32003KT M05/M09 A3022 RMK A01 T10531088  RH  077%=      5-min Rain = 0
KBR1 101340Z 31003KT M05/M09 A3022 RMK A01 T10531088  RH  077%=      5-min Rain = 0
KBR1 101341Z 31003KT M05/M09 A3022 RMK A01 T10531088  RH  077%=      5-min Rain = 0
KBR1 101342Z 32004KT M05/M09 A3022 RMK A01 T10531088  RH  077%=      5-min Rain = 0
KBR1 101343Z 31004KT M05/M09 A3022 RMK A01 T10541088  RH  077%=      5-min Rain = 0
KBR1 101344Z 32004KT M05/M09 A3022 RMK A01 T10541088  RH  077%=      5-min Rain = 0
KBR1 101345Z 32004KT M05/M09 A3022 RMK A01 T10541088  RH  077%=      5-min Rain = 0
KBR1 101346Z 31004KT M05/M09 A3022 RMK A01 T10541088  RH  077%=      5-min Rain = 0
KBR1 101347Z 31003KT M05/M09 A3022 RMK A01 T10541088  RH  077%=      5-min Rain = 0
KBR1 101348Z 31003KT M05/M09 A3022 RMK A01 T10541088  RH  077%=      5-min Rain = 0
KBR1 101349Z 31003KT M05/M09 A3022 RMK A01 T10541088  RH  077%=      5-min Rain = 0
KBR1 101350Z 30002KT M05/M09 A3022 RMK A01 T10541088  RH  077%=      5-min Rain = 0
KBR1 101351Z 30002KT M05/M09 A3022 RMK A01 T10541088  RH  077%=      5-min Rain = 0
KBR1 101352Z 30002KT M05/M09 A3022 RMK A01 T10541088  RH  077%=      5-min Rain = 0
KBR1 101353Z 31002KT M05/M09 A3022 RMK A01 T10541088  RH  077%=      5-min Rain = 0
KBR1 101354Z 31003KT M05/M09 A3022 RMK A01 T10541088  RH  077%=      5-min Rain = 0
KBR1 101355Z 31003KT M05/M09 A3022 RMK A01 T10541087  RH  078%=      5-min Rain = 0
KBR1 101356Z 31003KT M05/M09 A3022 RMK A01 T10531087  RH  077%=      5-min Rain = 0
KBR1 101357Z 31003KT M05/M09 A3022 RMK A01 T10521086  RH  077%=      5-min Rain = 0
KBR1 101358Z 31003KT M05/M09 A3022 RMK A01 T10521087  RH  077%=      5-min Rain = 0
KBR1 101359Z 30003KT M05/M09 A3022 RMK A01 T10521086  RH  077%=      5-min Rain = 0
KBR1 101400Z 30003KT M05/M09 A3022 RMK A01 T10521087  RH  076%=      5-min Rain = 0
KBR1 101401Z 30003KT M05/M09 A3022 RMK A01 T10511086  RH  077%=      5-min Rain = 0
KBR1 101402Z 31003KT M05/M09 A3022 RMK A01 T10511086  RH  077%=      5-min Rain = 0
KBR1 101403Z 31003KT M05/M09 A3022 RMK A01 T10511086  RH  076%=      5-min Rain = 0
KBR1 101404Z 31003KT M05/M09 A3022 RMK A01 T10511086  RH  076%=      5-min Rain = 0
KBR1 101405Z 30003KT M05/M09 A3022 RMK A01 T10511086  RH  077%=      5-min Rain = 0
KBR1 101406Z 31003KT M05/M09 A3022 RMK A01 T10511086  RH  076%=      5-min Rain = 0
KBR1 101407Z 30003KT M05/M09 A3022 RMK A01 T10511086  RH  076%=      5-min Rain = 0
KBR1 101408Z 30003KT M05/M09 A3022 RMK A01 T10521087  RH  076%=      5-min Rain = 0
KBR1 101409Z 30003KT M05/M09 A3022 RMK A01 T10521086  RH  077%=      5-min Rain = 0
KBR1 101410Z 31003KT M05/M09 A3022 RMK A01 T10511085  RH  077%=      5-min Rain = 0
KBR1 101411Z 31003KT M05/M09 A3022 RMK A01 T10521085  RH  077%=      5-min Rain = 0
KBR1 101412Z 31003KT M05/M08 A3022 RMK A01 T10521084  RH  078%=      5-min Rain = 0
KBR1 101413Z 31003KT M05/M08 A3022 RMK A01 T10511084  RH  078%=      5-min Rain = 0
KBR1 101414Z 31002KT M05/M08 A3022 RMK A01 T10511084  RH  078%=      5-min Rain = 0
KBR1 101415Z 32002KT M05/M08 A3022 RMK A01 T10501083  RH  078%=      5-min Rain = 0
KBR1 101416Z 32003KT M05/M08 A3022 RMK A01 T10491083  RH  077%=      5-min Rain = 0
KBR1 101417Z 32003KT M05/M08 A3022 RMK A01 T10491082  RH  078%=      5-min Rain = 0
KBR1 101418Z 32003KT M05/M08 A3022 RMK A01 T10491082  RH  078%=      5-min Rain = 0
KBR1 101419Z 32002KT M05/M08 A3022 RMK A01 T10481081  RH  078%=      5-min Rain = 0
KBR1 101420Z 32002KT M05/M08 A3022 RMK A01 T10471079  RH  078%=      5-min Rain = 0
KBR1 101421Z 32002KT M05/M08 A3022 RMK A01 T10461079  RH  077%=      5-min Rain = 0
KBR1 101422Z 31002KT M05/M08 A3022 RMK A01 T10451080  RH  076%=      5-min Rain = 0
KBR1 101423Z 31002KT M04/M08 A3023 RMK A01 T10441081  RH  076%=      5-min Rain = 0
KBR1 101424Z 31002KT M04/M08 A3023 RMK A01 T10441081  RH  075%=      5-min Rain = 0
KBR1 101425Z 31002KT M04/M08 A3023 RMK A01 T10441080  RH  076%=      5-min Rain = 0
KBR1 101426Z 32003KT M04/M08 A3023 RMK A01 T10441078  RH  077%=      5-min Rain = 0
KBR1 101427Z 33002KT M04/M08 A3023 RMK A01 T10441077  RH  078%=      5-min Rain = 0
KBR1 101428Z 33002KT M04/M08 A3023 RMK A01 T10441077  RH  078%=      5-min Rain = 0
KBR1 101429Z 33002KT M04/M08 A3023 RMK A01 T10441077  RH  078%=      5-min Rain = 0
KBR1 101430Z 33002KT M04/M08 A3023 RMK A01 T10441077  RH  078%=      5-min Rain = 0
KBR1 101431Z 33002KT M04/M08 A3023 RMK A01 T10431077  RH  077%=      5-min Rain = 0
KBR1 101432Z 33002KT M04/M08 A3023 RMK A01 T10431077  RH  077%=      5-min Rain = 0
KBR1 101433Z 33002KT M04/M08 A3023 RMK A01 T10421077  RH  077%=      5-min Rain = 0
KBR1 101434Z 33002KT M04/M08 A3023 RMK A01 T10421076  RH  077%=      5-min Rain = 0
KBR1 101435Z 33002KT M04/M08 A3023 RMK A01 T10411075  RH  077%=      5-min Rain = 0
KBR1 101436Z 33002KT M04/M07 A3023 RMK A01 T10411073  RH  078%=      5-min Rain = 0
KBR1 101437Z 32002KT M04/M07 A3023 RMK A01 T10411071  RH  079%=      5-min Rain = 0
KBR1 101438Z 32002KT M04/M07 A3023 RMK A01 T10401069  RH  080%=      5-min Rain = 0
KBR1 101439Z 32002KT M04/M07 A3023 RMK A01 T10391068  RH  080%=      5-min Rain = 0
KBR1 101440Z 31002KT M04/M07 A3023 RMK A01 T10391068  RH  080%=      5-min Rain = 0
KBR1 101441Z 30002KT M04/M07 A3023 RMK A01 T10381068  RH  080%=      5-min Rain = 0
KBR1 101442Z 30001KT M04/M07 A3023 RMK A01 T10381068  RH  080%=      5-min Rain = 0
KBR1 101443Z 30002KT M04/M07 A3023 RMK A01 T10371067  RH  079%=      5-min Rain = 0
KBR1 101444Z 30002KT M04/M07 A3023 RMK A01 T10371067  RH  079%=      5-min Rain = 0
KBR1 101445Z 31001KT M04/M07 A3023 RMK A01 T10361068  RH  079%=      5-min Rain = 0
KBR1 101446Z 30001KT M04/M07 A3023 RMK A01 T10351067  RH  079%=      5-min Rain = 0
KBR1 101447Z 31001KT M03/M07 A3024 RMK A01 T10341067  RH  078%=      5-min Rain = 0
KBR1 101448Z 29001KT M03/M07 A3024 RMK A01 T10331065  RH  079%=      5-min Rain = 0
KBR1 101449Z 29001KT M03/M06 A3024 RMK A01 T10331064  RH  079%=      5-min Rain = 0
KBR1 101450Z 31001KT M03/M06 A3024 RMK A01 T10321063  RH  079%=      5-min Rain = 0
KBR1 101451Z 30000KT M03/M06 A3024 RMK A01 T10311062  RH  079%=      5-min Rain = 0
KBR1 101452Z 28001KT M03/M06 A3024 RMK A01 T10291059  RH  080%=      5-min Rain = 0
KBR1 101453Z 25000KT M03/M06 A3024 RMK A01 T10281060  RH  079%=      5-min Rain = 0
KBR1 101454Z 25000KT M03/M06 A3024 RMK A01 T10271061  RH  077%=      5-min Rain = 0
KBR1 101455Z 26000KT M03/M06 A3024 RMK A01 T10251061  RH  077%=      5-min Rain = 0
KBR1 101456Z 30001KT M02/M06 A3024 RMK A01 T10241060  RH  076%=      5-min Rain = 0
KBR1 101457Z 31000KT M02/M06 A3024 RMK A01 T10231059  RH  076%=      5-min Rain = 0
KBR1 101458Z 31000KT M02/M06 A3024 RMK A01 T10221058  RH  076%=      5-min Rain = 0
KBR1 101459Z 32001KT M02/M06 A3024 RMK A01 T10211057  RH  076%=      5-min Rain = 0
KBR1 101500Z 30001KT M02/M06 A3024 RMK A01 T10211059  RH  075%=      5-min Rain = 0
KBR1 101501Z 30001KT M02/M06 A3024 RMK A01 T10211058  RH  075%=      5-min Rain = 0
KBR1 101502Z 32002KT M02/M06 A3025 RMK A01 T10201056  RH  076%=      5-min Rain = 0
KBR1 101503Z 30001KT M02/M06 A3025 RMK A01 T10191056  RH  076%=      5-min Rain = 0
KBR1 101504Z 28000KT M02/M06 A3025 RMK A01 T10181055  RH  076%=      5-min Rain = 0
KBR1 101505Z 30000KT M02/M05 A3025 RMK A01 T10171053  RH  076%=      5-min Rain = 0
KBR1 101506Z 28000KT M02/M05 A3025 RMK A01 T10151051  RH  076%=      5-min Rain = 0
KBR1 101507Z 27002KT M01/M05 A3025 RMK A01 T10131051  RH  075%=      5-min Rain = 0
KBR1 101508Z 27002KT M01/M05 A3025 RMK A01 T10121053  RH  074%=      5-min Rain = 0
KBR1 101509Z 28002KT M01/M05 A3025 RMK A01 T10121053  RH  074%=      5-min Rain = 0
KBR1 101510Z 27003KT M01/M05 A3025 RMK A01 T10111052  RH  073%=      5-min Rain = 0
KBR1 101511Z 26003KT M01/M05 A3025 RMK A01 T10101053  RH  073%=      5-min Rain = 0
KBR1 101512Z 27004KT M01/M05 A3025 RMK A01 T10091054  RH  072%=      5-min Rain = 0
KBR1 101513Z 27003KT M01/M06 A3025 RMK A01 T10091055  RH  071%=      5-min Rain = 0
KBR1 101514Z 26003KT M01/M06 A3025 RMK A01 T10081055  RH  071%=      5-min Rain = 0
KBR1 101515Z 27003KT M01/M05 A3025 RMK A01 T10081054  RH  071%=      5-min Rain = 0
KBR1 101516Z 27003KT M01/M05 A3025 RMK A01 T10071053  RH  071%=      5-min Rain = 0
KBR1 101517Z 27003KT M01/M05 A3025 RMK A01 T10071053  RH  071%=      5-min Rain = 0
KBR1 101518Z 26003KT M01/M05 A3025 RMK A01 T10061052  RH  071%=      5-min Rain = 0
KBR1 101519Z 26004KT M01/M05 A3025 RMK A01 T10051051  RH  071%=      5-min Rain = 0
KBR1 101520Z 25003KT M01/M05 A3025 RMK A01 T10051051  RH  071%=      5-min Rain = 0
KBR1 101521Z 25003KT M00/M05 A3025 RMK A01 T10041049  RH  072%=      5-min Rain = 0
KBR1 101522Z 26003KT M00/M05 A3025 RMK A01 T10021046  RH  072%=      5-min Rain = 0
KBR1 101523Z 26003KT M00/M05 A3025 RMK A01 T10011046  RH  072%=      5-min Rain = 0
KBR1 101524Z 26003KT 00/05 A3025 RMK A01 T00-00-46  RH  071%=      5-min Rain = 0
KBR1 101525Z 26004KT 00/05 A3025 RMK A01 T00-00-48  RH  070%=      5-min Rain = 0
KBR1 101526Z 25003KT 00/05 A3025 RMK A01 T00000-46  RH  071%=      5-min Rain = 0
KBR1 101527Z 22003KT 00/M04 A3025 RMK A01 T00011043  RH  072%=      5-min Rain = 0
KBR1 101528Z 23003KT 00/M04 A3025 RMK A01 T00021044  RH  071%=      5-min Rain = 0
KBR1 101529Z 22003KT 00/M04 A3025 RMK A01 T00041041  RH  072%=      5-min Rain = 0
KBR1 101530Z 22004KT 01/M04 A3025 RMK A01 T00051042  RH  071%=      5-min Rain = 0
KBR1 101531Z 21004KT 01/M05 A3025 RMK A01 T00061045  RH  069%=      5-min Rain = 0
KBR1 101532Z 22004KT 01/M05 A3025 RMK A01 T00071045  RH  068%=      5-min Rain = 0
KBR1 101533Z 22004KT 01/M05 A3025 RMK A01 T00071046  RH  067%=      5-min Rain = 0
KBR1 101534Z 21003KT 01/M05 A3025 RMK A01 T00081045  RH  068%=      5-min Rain = 0
KBR1 101535Z 22004KT 01/M04 A3025 RMK A01 T00081043  RH  069%=      5-min Rain = 0
KBR1 101536Z 22004KT 01/M04 A3025 RMK A01 T00091044  RH  068%=      5-min Rain = 0
KBR1 101537Z 23005KT 01/M05 A3025 RMK A01 T00101045  RH  067%=      5-min Rain = 0
KBR1 101538Z 22006KT 01/M05 A3025 RMK A01 T00121049  RH  064%=      5-min Rain = 0
KBR1 101539Z 22006KT 01/M05 A3025 RMK A01 T00121051  RH  063%=      5-min Rain = 0
KBR1 101540Z 23005KT 01/M05 A3025 RMK A01 T00131052  RH  062%=      5-min Rain = 0
KBR1 101541Z 22008KT 01/M05 A3025 RMK A01 T00141053  RH  061%=      5-min Rain = 0
KBR1 101542Z 23007KT 02/M06 A3025 RMK A01 T00151058  RH  058%=      5-min Rain = 0
KBR1 101543Z 23007KT 02/M06 A3025 RMK A01 T00151060  RH  057%=      5-min Rain = 0
KBR1 101544Z 21006KT 02/M06 A3025 RMK A01 T00161057  RH  058%=      5-min Rain = 0
KBR1 101545Z 21006KT 02/M05 A3025 RMK A01 T00171052  RH  060%=      5-min Rain = 0
KBR1 101546Z 21007KT 02/M05 A3025 RMK A01 T00181052  RH  060%=      5-min Rain = 0
KBR1 101547Z 22007KT 02/M06 A3025 RMK A01 T00191057  RH  057%=      5-min Rain = 0
KBR1 101548Z 22006KT 02/M06 A3025 RMK A01 T00181060  RH  056%=      5-min Rain = 0
KBR1 101549Z 21007KT 02/M06 A3025 RMK A01 T00191061  RH  055%=      5-min Rain = 0
KBR1 101550Z 21008KT 02/M07 A3025 RMK A01 T00201066  RH  053%=      5-min Rain = 0
KBR1 101551Z 22010KT 02/M08 A3025 RMK A01 T00201075  RH  050%=      5-min Rain = 0
KBR1 101552Z 22008KT 02/M08 A3025 RMK A01 T00201080  RH  047%=      5-min Rain = 0
KBR1 101553Z 22007KT 02/M08 A3025 RMK A01 T00211081  RH  047%=      5-min Rain = 0
KBR1 101554Z 22007KT 02/M07 A3025 RMK A01 T00241072  RH  049%=      5-min Rain = 0
KBR1 101555Z 21008KT 02/M08 A3025 RMK A01 T00241079  RH  046%=      5-min Rain = 0
KBR1 101556Z 20010KT 03/M08 A3025 RMK A01 T00251081  RH  046%=      5-min Rain = 0
KBR1 101557Z 21009KT 02/M09 A3025 RMK A01 T00241087  RH  044%=      5-min Rain = 0
KBR1 101558Z 21008KT 02/M09 A3025 RMK A01 T00241092  RH  042%=      5-min Rain = 0
KBR1 101559Z 21008KT 02/M10 A3025 RMK A01 T00231097  RH  041%=      5-min Rain = 0
KBR1 101600Z 20008KT 02/M10 A3025 RMK A01 T00231095  RH  041%=      5-min Rain = 0
KBR1 101601Z 20009KT 02/M09 A3025 RMK A01 T00241094  RH  041%=      5-min Rain = 0
KBR1 101602Z 20010KT 02/M10 A3025 RMK A01 T00241095  RH  041%=      5-min Rain = 0
KBR1 101603Z 20009KT 02/M10 A3025 RMK A01 T00241098  RH  040%=      5-min Rain = 0
KBR1 101604Z 21008KT 02/M10 A3025 RMK A01 T00241096  RH  041%=      5-min Rain = 0
KBR1 101605Z 20007KT 03/M09 A3025 RMK A01 T00261094  RH  041%=      5-min Rain = 0
KBR1 101606Z 21009KT 03/M09 A3025 RMK A01 T00281093  RH  041%=      5-min Rain = 0
KBR1 101607Z 21010KT 03/M10 A3025 RMK A01 T00291098  RH  039%=      5-min Rain = 0
KBR1 101608Z 20008KT 03/M10 A3025 RMK A01 T00281103  RH  038%=      5-min Rain = 0
KBR1 101609Z 19010KT 03/M10 A3025 RMK A01 T00281098  RH  039%=      5-min Rain = 0
KBR1 101610Z 20011KT 03/M10 A3025 RMK A01 T00301100  RH  038%=      5-min Rain = 0
KBR1 101611Z 20010KT 03/M11 A3025 RMK A01 T00291105  RH  037%=      5-min Rain = 0
KBR1 101612Z 20010KT 03/M11 A3025 RMK A01 T00281105  RH  037%=      5-min Rain = 0
KBR1 101613Z 21010KT 03/M10 A3025 RMK A01 T00281103  RH  038%=      5-min Rain = 0
KBR1 101614Z 21010KT 03/M11 A3025 RMK A01 T00281105  RH  037%=      5-min Rain = 0
KBR1 101615Z 20009KT 03/M10 A3025 RMK A01 T00281100  RH  038%=      5-min Rain = 0
KBR1 101616Z 20010KT 03/M09 A3025 RMK A01 T00311094  RH  039%=      5-min Rain = 0
KBR1 101617Z 19011KT 03/M10 A3025 RMK A01 T00311099  RH  038%=      5-min Rain = 0
KBR1 101618Z 20010KT 03/M10 A3025 RMK A01 T00301103  RH  037%=      5-min Rain = 0
KBR1 101619Z 21010KT 03/M10 A3025 RMK A01 T00301100  RH  038%=      5-min Rain = 0
KBR1 101620Z 20012KT 03/M10 A3025 RMK A01 T00311101  RH  037%=      5-min Rain = 0
KBR1 101621Z 19011KT 03/M10 A3025 RMK A01 T00291102  RH  038%=      5-min Rain = 0
KBR1 101622Z 19010KT 03/M10 A3025 RMK A01 T00281101  RH  038%=      5-min Rain = 0
KBR1 101623Z 20009KT 03/M10 A3025 RMK A01 T00281101  RH  038%=      5-min Rain = 0
KBR1 101624Z 20010KT 03/M10 A3025 RMK A01 T00281099  RH  039%=      5-min Rain = 0
KBR1 101625Z 21009KT 03/M10 A3025 RMK A01 T00301096  RH  039%=      5-min Rain = 0
KBR1 101626Z 21010KT 03/M10 A3025 RMK A01 T00321095  RH  039%=      5-min Rain = 0
KBR1 101627Z 21010KT 03/M10 A3025 RMK A01 T00331096  RH  038%=      5-min Rain = 0
KBR1 101628Z 21010KT 03/M10 A3025 RMK A01 T00331098  RH  038%=      5-min Rain = 0
KBR1 101629Z 21011KT 03/M10 A3025 RMK A01 T00321101  RH  037%=      5-min Rain = 0
KBR1 101630Z 20010KT 03/M10 A3025 RMK A01 T00321099  RH  038%=      5-min Rain = 0
KBR1 101631Z 19009KT 03/M10 A3025 RMK A01 T00321097  RH  038%=      5-min Rain = 0
KBR1 101632Z 18010KT 03/M10 A3025 RMK A01 T00321096  RH  038%=      5-min Rain = 0
KBR1 101633Z 20010KT 03/M10 A3025 RMK A01 T00321097  RH  038%=      5-min Rain = 0
KBR1 101634Z 20011KT 03/M10 A3025 RMK A01 T00341096  RH  038%=      5-min Rain = 0
KBR1 101635Z 21009KT 03/M10 A3025 RMK A01 T00341099  RH  037%=      5-min Rain = 0
KBR1 101636Z 21008KT 03/M10 A3025 RMK A01 T00331099  RH  037%=      5-min Rain = 0
KBR1 101637Z 20012KT 03/M10 A3025 RMK A01 T00341096  RH  038%=      5-min Rain = 0
KBR1 101638Z 19011KT 03/M10 A3025 RMK A01 T00341097  RH  038%=      5-min Rain = 0
KBR1 101639Z 19009KT 03/M10 A3025 RMK A01 T00331097  RH  038%=      5-min Rain = 0
KBR1 101640Z 20012KT 03/M10 A3025 RMK A01 T00331099  RH  037%=      5-min Rain = 0
KBR1 101641Z 20011KT 03/M10 A3025 RMK A01 T00331101  RH  037%=      5-min Rain = 0
KBR1 101642Z 20008KT 03/M10 A3025 RMK A01 T00321101  RH  037%=      5-min Rain = 0
KBR1 101643Z 20010KT 04/M10 A3025 RMK A01 T00351099  RH  037%=      5-min Rain = 0
KBR1 101644Z 22009KT 04/M10 A3025 RMK A01 T00351104  RH  035%=      5-min Rain = 0
KBR1 101645Z 20011KT 04/M10 A3025 RMK A01 T00351101  RH  036%=      5-min Rain = 0
KBR1 101646Z 19011KT 04/M10 A3025 RMK A01 T00361100  RH  036%=      5-min Rain = 0
KBR1 101647Z 19009KT 04/M10 A3025 RMK A01 T00361098  RH  037%=      5-min Rain = 0
KBR1 101648Z 19009KT 04/M10 A3025 RMK A01 T00361095  RH  038%=      5-min Rain = 0
KBR1 101649Z 20008KT 04/M09 A3025 RMK A01 T00361094  RH  038%=      5-min Rain = 0
KBR1 101650Z 21009KT 04/M09 A3025 RMK A01 T00371094  RH  038%=      5-min Rain = 0
KBR1 101651Z 18007KT 04/M09 A3025 RMK A01 T00391094  RH  037%=      5-min Rain = 0
KBR1 101652Z 19010KT 04/M09 A3025 RMK A01 T00411093  RH  037%=      5-min Rain = 0
KBR1 101653Z 19008KT 04/M10 A3025 RMK A01 T00381098  RH  036%=      5-min Rain = 0
KBR1 101654Z 19008KT 04/M10 A3025 RMK A01 T00361098  RH  037%=      5-min Rain = 0
KBR1 101655Z 19009KT 04/M09 A3025 RMK A01 T00381094  RH  038%=      5-min Rain = 0
KBR1 101656Z 19008KT 04/M10 A3025 RMK A01 T00371095  RH  037%=      5-min Rain = 0
KBR1 101657Z 20011KT 04/M10 A3025 RMK A01 T00381095  RH  037%=      5-min Rain = 0
KBR1 101658Z 21010KT 04/M10 A3025 RMK A01 T00401100  RH  035%=      5-min Rain = 0
KBR1 101659Z 22010KT 04/M11 A3025 RMK A01 T00411105  RH  034%=      5-min Rain = 0
KBR1 101700Z 20009KT 04/M11 A3025 RMK A01 T00411107  RH  033%=      5-min Rain = 0
KBR1 101701Z 20009KT 04/M10 A3025 RMK A01 T00411101  RH  035%=      5-min Rain = 0
KBR1 101702Z 20009KT 04/M10 A3025 RMK A01 T00421101  RH  034%=      5-min Rain = 0
KBR1 101703Z 21011KT 04/M11 A3025 RMK A01 T00431109  RH  032%=      5-min Rain = 0
KBR1 101704Z 21009KT 04/M11 A3025 RMK A01 T00421110  RH  032%=      5-min Rain = 0
KBR1 101705Z 21009KT 04/M11 A3025 RMK A01 T00421106  RH  033%=      5-min Rain = 0
KBR1 101706Z 21009KT 04/M11 A3025 RMK A01 T00421108  RH  033%=      5-min Rain = 0
KBR1 101707Z 21011KT 05/M10 A3025 RMK A01 T00451103  RH  033%=      5-min Rain = 0
KBR1 101708Z 21011KT 05/M11 A3025 RMK A01 T00451107  RH  032%=      5-min Rain = 0
KBR1 101709Z 21010KT 04/M11 A3025 RMK A01 T00441109  RH  032%=      5-min Rain = 0
KBR1 101710Z 21010KT 04/M11 A3025 RMK A01 T00411112  RH  032%=      5-min Rain = 0
KBR1 101711Z 21012KT 04/M11 A3025 RMK A01 T00411112  RH  032%=      5-min Rain = 0
KBR1 101712Z 19012KT 04/M11 A3025 RMK A01 T00411112  RH  032%=      5-min Rain = 0
KBR1 101713Z 20009KT 04/M11 A3025 RMK A01 T00401112  RH  032%=      5-min Rain = 0
KBR1 101714Z 21008KT 04/M11 A3025 RMK A01 T00401108  RH  033%=      5-min Rain = 0
KBR1 101715Z 20009KT 04/M11 A3025 RMK A01 T00431106  RH  033%=      5-min Rain = 0
KBR1 101716Z 21009KT 04/M11 A3025 RMK A01 T00411111  RH  032%=      5-min Rain = 0
KBR1 101717Z 21009KT 04/M11 A3025 RMK A01 T00411108  RH  033%=      5-min Rain = 0
KBR1 101718Z 19011KT 04/M11 A3025 RMK A01 T00421108  RH  033%=      5-min Rain = 0
KBR1 101719Z 20011KT 04/M11 A3025 RMK A01 T00411113  RH  032%=      5-min Rain = 0
KBR1 101720Z 21007KT 04/M11 A3025 RMK A01 T00401112  RH  032%=      5-min Rain = 0
KBR1 101721Z 21010KT 04/M11 A3025 RMK A01 T00421108  RH  033%=      5-min Rain = 0
KBR1 101722Z 21010KT 05/M11 A3025 RMK A01 T00451108  RH  032%=      5-min Rain = 0
KBR1 101723Z 21008KT 05/M11 A3025 RMK A01 T00451111  RH  031%=      5-min Rain = 0
KBR1 101724Z 20010KT 05/M11 A3025 RMK A01 T00461108  RH  032%=      5-min Rain = 0
KBR1 101725Z 21010KT 05/M11 A3025 RMK A01 T00451111  RH  031%=      5-min Rain = 0
KBR1 101726Z 21009KT 04/M11 A3025 RMK A01 T00421112  RH  032%=      5-min Rain = 0
KBR1 101727Z 20009KT 04/M11 A3025 RMK A01 T00421111  RH  032%=      5-min Rain = 0
KBR1 101728Z 19011KT 05/M11 A3025 RMK A01 T00451107  RH  032%=      5-min Rain = 0
KBR1 101729Z 18011KT 05/M11 A3025 RMK A01 T00451109  RH  032%=      5-min Rain = 0
KBR1 101730Z 18012KT 05/M11 A3025 RMK A01 T00461110  RH  031%=      5-min Rain = 0
KBR1 101731Z 19010KT 05/M11 A3025 RMK A01 T00461109  RH  032%=      5-min Rain = 0
KBR1 101732Z 21009KT 05/M11 A3025 RMK A01 T00471109  RH  031%=      5-min Rain = 0
KBR1 101733Z 21009KT 05/M11 A3025 RMK A01 T00481108  RH  031%=      5-min Rain = 0
KBR1 101734Z 21009KT 05/M11 A3024 RMK A01 T00501109  RH  031%=      5-min Rain = 0
KBR1 101735Z 21012KT 05/M11 A3024 RMK A01 T00521109  RH  030%=      5-min Rain = 0
KBR1 101736Z 20012KT 05/M11 A3024 RMK A01 T00501113  RH  029%=      5-min Rain = 0
KBR1 101737Z 20012KT 05/M11 A3024 RMK A01 T00481114  RH  030%=      5-min Rain = 0
KBR1 101738Z 20009KT 05/M11 A3024 RMK A01 T00481114  RH  030%=      5-min Rain = 0
KBR1 101739Z 22010KT 05/M11 A3024 RMK A01 T00481113  RH  030%=      5-min Rain = 0
KBR1 101740Z 21009KT 05/M11 A3024 RMK A01 T00491111  RH  030%=      5-min Rain = 0
KBR1 101741Z 22010KT 05/M11 A3024 RMK A01 T00501111  RH  030%=      5-min Rain = 0
KBR1 101742Z 21011KT 05/M11 A3024 RMK A01 T00511109  RH  030%=      5-min Rain = 0
KBR1 101743Z 20010KT 05/M11 A3024 RMK A01 T00511108  RH  031%=      5-min Rain = 0
KBR1 101744Z 19009KT 05/M11 A3024 RMK A01 T00491109  RH  031%=      5-min Rain = 0
KBR1 101745Z 19012KT 05/M11 A3024 RMK A01 T00491107  RH  031%=      5-min Rain = 0
KBR1 101746Z 21010KT 05/M11 A3024 RMK A01 T00521105  RH  031%=      5-min Rain = 0
KBR1 101747Z 21008KT 05/M11 A3024 RMK A01 T00531108  RH  030%=      5-min Rain = 0
KBR1 101748Z 20010KT 05/M11 A3024 RMK A01 T00521107  RH  031%=      5-min Rain = 0
KBR1 101749Z 20010KT 05/M11 A3024 RMK A01 T00511108  RH  031%=      5-min Rain = 0
KBR1 101750Z 19009KT 05/M11 A3024 RMK A01 T00511106  RH  031%=      5-min Rain = 0
KBR1 101751Z 19010KT 05/M10 A3024 RMK A01 T00511104  RH  032%=      5-min Rain = 0
KBR1 101752Z 19011KT 05/M10 A3024 RMK A01 T00521104  RH  031%=      5-min Rain = 0
KBR1 101753Z 22011G17KT 05/M10 A3024 RMK A01 T00541104  RH  031%=      5-min Rain = 0
KBR1 101754Z 20011KT 06/M10 A3024 RMK A01 T00561103  RH  031%=      5-min Rain = 0
KBR1 101755Z 20010KT 06/M10 A3024 RMK A01 T00551103  RH  031%=      5-min Rain = 0
KBR1 101756Z 20008KT 05/M10 A3024 RMK A01 T00541103  RH  031%=      5-min Rain = 0
KBR1 101757Z 19008KT 05/M10 A3024 RMK A01 T00541103  RH  031%=      5-min Rain = 0
KBR1 101758Z 18005KT 05/M11 A3024 RMK A01 T00521106  RH  031%=      5-min Rain = 0
KBR1 101759Z 18005KT 05/M10 A3024 RMK A01 T00541101  RH  032%=      5-min Rain = 0
KBR1 101800Z 22010KT 06/M10 A3024 RMK A01 T00571101  RH  031%=      5-min Rain = 0
KBR1 101801Z 21010KT 06/M10 A3024 RMK A01 T00571102  RH  031%=      5-min Rain = 0
KBR1 101802Z 21007KT 06/M11 A3024 RMK A01 T00571105  RH  030%=      5-min Rain = 0
KBR1 101803Z 19007KT 06/M10 A3023 RMK A01 T00571102  RH  031%=      5-min Rain = 0
KBR1 101804Z 20011KT 06/M10 A3023 RMK A01 T00571103  RH  030%=      5-min Rain = 0
KBR1 101805Z 21010KT 06/M10 A3023 RMK A01 T00561104  RH  030%=      5-min Rain = 0
KBR1 101806Z 19006KT 06/M11 A3023 RMK A01 T00551105  RH  031%=      5-min Rain = 0
KBR1 101807Z 18007KT 05/M10 A3023 RMK A01 T00541104  RH  031%=      5-min Rain = 0
KBR1 101808Z 18006KT 06/M10 A3023 RMK A01 T00551103  RH  031%=      5-min Rain = 0
KBR1 101809Z 20009KT 06/M10 A3023 RMK A01 T00591099  RH  031%=      5-min Rain = 0
KBR1 101810Z 21011KT 06/M10 A3023 RMK A01 T00611102  RH  030%=      5-min Rain = 0
KBR1 101811Z 21007KT 06/M11 A3023 RMK A01 T00601106  RH  029%=      5-min Rain = 0
KBR1 101812Z 22010KT 06/M10 A3023 RMK A01 T00601104  RH  030%=      5-min Rain = 0
KBR1 101813Z 22008KT 06/M11 A3023 RMK A01 T00601105  RH  029%=      5-min Rain = 0
KBR1 101814Z 22011KT 06/M10 A3023 RMK A01 T00621104  RH  029%=      5-min Rain = 0
KBR1 101815Z 21010KT 06/M11 A3023 RMK A01 T00621105  RH  029%=      5-min Rain = 0
KBR1 101816Z 21007KT 06/M11 A3023 RMK A01 T00591108  RH  029%=      5-min Rain = 0
KBR1 101817Z 23008KT 06/M11 A3023 RMK A01 T00581107  RH  029%=      5-min Rain = 0
KBR1 101818Z 23009KT 06/M10 A3023 RMK A01 T00611103  RH  030%=      5-min Rain = 0
KBR1 101819Z 21010KT 06/M11 A3023 RMK A01 T00621105  RH  029%=      5-min Rain = 0
KBR1 101820Z 21011KT 06/M10 A3023 RMK A01 T00611104  RH  029%=      5-min Rain = 0
KBR1 101821Z 20010KT 06/M11 A3023 RMK A01 T00621105  RH  029%=      5-min Rain = 0
KBR1 101822Z 20010KT 06/M11 A3022 RMK A01 T00611106  RH  029%=      5-min Rain = 0
KBR1 101823Z 19007KT 06/M11 A3023 RMK A01 T00601106  RH  029%=      5-min Rain = 0
KBR1 101824Z 20006KT 06/M10 A3022 RMK A01 T00611104  RH  029%=      5-min Rain = 0
KBR1 101825Z 22008KT 06/M11 A3022 RMK A01 T00611105  RH  029%=      5-min Rain = 0
KBR1 101826Z 22008KT 06/M11 A3022 RMK A01 T00601107  RH  029%=      5-min Rain = 0
KBR1 101827Z 22010KT 06/M11 A3022 RMK A01 T00601106  RH  029%=      5-min Rain = 0
KBR1 101828Z 22007KT 06/M11 A3022 RMK A01 T00601106  RH  029%=      5-min Rain = 0
KBR1 101829Z 22005KT 06/M11 A3022 RMK A01 T00601107  RH  029%=      5-min Rain = 0
KBR1 101830Z 20005KT 06/M10 A3022 RMK A01 T00611104  RH  029%=      5-min Rain = 0
KBR1 101831Z 22007KT 07/M10 A3022 RMK A01 T00651100  RH  030%=      5-min Rain = 0
KBR1 101832Z 21007KT 07/M10 A3022 RMK A01 T00711096  RH  029%=      5-min Rain = 0
KBR1 101833Z 22007KT 07/M10 A3022 RMK A01 T00681103  RH  028%=      5-min Rain = 0
KBR1 101834Z 23008G13KT 07/M10 A3022 RMK A01 T00671103  RH  028%=      5-min Rain = 0
KBR1 101835Z 23010KT 07/M10 A3022 RMK A01 T00671104  RH  028%=      5-min Rain = 0
KBR1 101836Z 23008KT 07/M10 A3022 RMK A01 T00671103  RH  029%=      5-min Rain = 0
KBR1 101837Z 24005KT 07/M10 A3022 RMK A01 T00681103  RH  028%=      5-min Rain = 0
KBR1 101838Z 23005KT 07/M10 A3022 RMK A01 T00671104  RH  028%=      5-min Rain = 0
KBR1 101839Z 21007KT 07/M11 A3022 RMK A01 T00661105  RH  028%=      5-min Rain = 0
KBR1 101840Z 22008KT 07/M10 A3022 RMK A01 T00661103  RH  029%=      5-min Rain = 0
KBR1 101841Z 21009KT 07/M10 A3022 RMK A01 T00681100  RH  029%=      5-min Rain = 0
KBR1 101842Z 21009KT 07/M10 A3022 RMK A01 T00691099  RH  029%=      5-min Rain = 0
KBR1 101843Z 22008KT 07/M10 A3022 RMK A01 T00701100  RH  029%=      5-min Rain = 0
KBR1 101844Z 22007KT 07/M10 A3022 RMK A01 T00701101  RH  028%=      5-min Rain = 0
KBR1 101845Z 18007KT 07/M10 A3022 RMK A01 T00691103  RH  028%=      5-min Rain = 0
KBR1 101846Z 19009KT 07/M10 A3021 RMK A01 T00691103  RH  028%=      5-min Rain = 0
KBR1 101847Z 18008KT 07/M11 A3021 RMK A01 T00691105  RH  028%=      5-min Rain = 0
KBR1 101848Z 20008KT 07/M10 A3021 RMK A01 T00691104  RH  028%=      5-min Rain = 0
KBR1 101849Z 20007KT 07/M11 A3021 RMK A01 T00691105  RH  028%=      5-min Rain = 0
KBR1 101850Z 20005KT 07/M11 A3021 RMK A01 T00681106  RH  028%=      5-min Rain = 0
KBR1 101851Z 23009KT 07/M10 A3021 RMK A01 T00701101  RH  028%=      5-min Rain = 0
KBR1 101852Z 24009KT 07/M10 A3021 RMK A01 T00711102  RH  028%=      5-min Rain = 0
KBR1 101853Z 23008KT 07/M11 A3021 RMK A01 T00681105  RH  028%=      5-min Rain = 0
KBR1 101854Z 21007KT 07/M11 A3021 RMK A01 T00681105  RH  028%=      5-min Rain = 0
KBR1 101855Z 18007KT 07/M10 A3021 RMK A01 T00691103  RH  028%=      5-min Rain = 0
KBR1 101856Z 19005KT 07/M10 A3021 RMK A01 T00701104  RH  028%=      5-min Rain = 0
KBR1 101857Z 23009KT 07/M10 A3021 RMK A01 T00691104  RH  028%=      5-min Rain = 0
KBR1 101858Z 23008KT 07/M10 A3021 RMK A01 T00701103  RH  028%=      5-min Rain = 0
KBR1 101859Z 22007KT 07/M10 A3021 RMK A01 T00701103  RH  028%=      5-min Rain = 0
KBR1 101900Z 22008KT 07/M10 A3021 RMK A01 T00711102  RH  028%=      5-min Rain = 0
KBR1 101901Z 20008KT 07/M10 A3021 RMK A01 T00741101  RH  028%=      5-min Rain = 0
KBR1 101902Z 21006KT 07/M10 A3021 RMK A01 T00721101  RH  028%=      5-min Rain = 0
KBR1 101903Z 21008KT 07/M10 A302 RMK A01 T00721103  RH  027%=      5-min Rain = 0
KBR1 101904Z 22007KT 07/M10 A302 RMK A01 T00721103  RH  028%=      5-min Rain = 0
KBR1 101905Z 20008KT 07/M10 A302 RMK A01 T00731099  RH  028%=      5-min Rain = 0
KBR1 101906Z 21008KT 08/M10 A302 RMK A01 T00761099  RH  028%=      5-min Rain = 0
KBR1 101907Z 21006KT 07/M10 A302 RMK A01 T00741103  RH  027%=      5-min Rain = 0
KBR1 101908Z 19006KT 07/M10 A302 RMK A01 T00731100  RH  028%=      5-min Rain = 0
KBR1 101909Z 21008G13KT 07/M10 A302 RMK A01 T00741100  RH  028%=      5-min Rain = 0
KBR1 101910Z 22009KT 07/M10 A302 RMK A01 T00741098  RH  028%=      5-min Rain = 0
KBR1 101911Z 22009KT 07/M10 A302 RMK A01 T00741099  RH  028%=      5-min Rain = 0
KBR1 101912Z 21008KT 08/M10 A302 RMK A01 T00751099  RH  028%=      5-min Rain = 0
KBR1 101913Z 20007KT 08/M10 A302 RMK A01 T00761097  RH  028%=      5-min Rain = 0
KBR1 101914Z 22010KT 08/M10 A302 RMK A01 T00771097  RH  028%=      5-min Rain = 0
KBR1 101915Z 22009KT 08/M10 A302 RMK A01 T00771100  RH  027%=      5-min Rain = 0
KBR1 101916Z 19007KT 08/M10 A302 RMK A01 T00761099  RH  028%=      5-min Rain = 0
KBR1 101917Z 18004KT 08/M10 A302 RMK A01 T00761102  RH  027%=      5-min Rain = 0
KBR1 101918Z 19004KT 07/M10 A302 RMK A01 T00741104  RH  027%=      5-min Rain = 0
KBR1 101919Z 21007KT 08/M10 A302 RMK A01 T00761098  RH  028%=      5-min Rain = 0
KBR1 101920Z 23008KT 08/M09 A302 RMK A01 T00791093  RH  028%=      5-min Rain = 0
KBR1 101921Z 23010KT 08/M09 A302 RMK A01 T00791094  RH  028%=      5-min Rain = 0
KBR1 101922Z 21007KT 08/M09 A302 RMK A01 T00801094  RH  028%=      5-min Rain = 0
KBR1 101923Z 22010KT 08/M10 A302 RMK A01 T00791095  RH  028%=      5-min Rain = 0
KBR1 101924Z 22010KT 08/M10 A302 RMK A01 T00781096  RH  028%=      5-min Rain = 0
KBR1 101925Z 22008KT 08/M10 A302 RMK A01 T00791095  RH  028%=      5-min Rain = 0
KBR1 101926Z 22009KT 08/M10 A302 RMK A01 T00791097  RH  028%=      5-min Rain = 0
KBR1 101927Z 22008KT 08/M10 A302 RMK A01 T00791097  RH  028%=      5-min Rain = 0
KBR1 101928Z 24005KT 08/M10 A302 RMK A01 T00761099  RH  028%=      5-min Rain = 0
KBR1 101929Z 22004KT 07/M10 A302 RMK A01 T00741099  RH  028%=      5-min Rain = 0
KBR1 101930Z 22006KT 07/M10 A302 RMK A01 T00741098  RH  028%=      5-min Rain = 0
KBR1 101931Z 22005KT 08/M09 A302 RMK A01 T00771093  RH  029%=      5-min Rain = 0
KBR1 101932Z 22007KT 08/M09 A302 RMK A01 T00791094  RH  028%=      5-min Rain = 0
KBR1 101933Z 19005KT 08/M10 A302 RMK A01 T00781097  RH  028%=      5-min Rain = 0
KBR1 101934Z 18006KT 08/M10 A302 RMK A01 T00781097  RH  028%=      5-min Rain = 0
KBR1 101935Z 20009KT 08/M10 A302 RMK A01 T00791096  RH  028%=      5-min Rain = 0
KBR1 101936Z 21009KT 08/M09 A3019 RMK A01 T00811093  RH  028%=      5-min Rain = 0
KBR1 101937Z 21007KT 08/M09 A302 RMK A01 T00831090  RH  028%=      5-min Rain = 0
KBR1 101938Z 20007KT 08/M09 A3019 RMK A01 T00811091  RH  029%=      5-min Rain = 0
KBR1 101939Z 21011KT 08/M08 A3019 RMK A01 T00821084  RH  030%=      5-min Rain = 0
KBR1 101940Z 20010KT 08/M08 A3019 RMK A01 T00821084  RH  030%=      5-min Rain = 0
KBR1 101941Z 21007KT 08/M09 A3019 RMK A01 T00811085  RH  030%=      5-min Rain = 0
KBR1 101942Z 20007KT 08/M09 A3019 RMK A01 T00801086  RH  030%=      5-min Rain = 0
KBR1 101943Z 22009KT 08/M08 A3019 RMK A01 T00831083  RH  030%=      5-min Rain = 0
KBR1 101944Z 22006KT 08/M09 A3019 RMK A01 T00821090  RH  029%=      5-min Rain = 0
KBR1 101945Z 22009KT 08/M09 A3019 RMK A01 T00801088  RH  029%=      5-min Rain = 0
KBR1 101946Z 21010KT 08/M08 A3019 RMK A01 T00821083  RH  030%=      5-min Rain = 0
KBR1 101947Z 21010KT 08/M09 A3019 RMK A01 T00821086  RH  029%=      5-min Rain = 0
KBR1 101948Z 21005KT 08/M09 A3019 RMK A01 T00791089  RH  029%=      5-min Rain = 0
KBR1 101949Z 21006KT 08/M09 A3019 RMK A01 T00811085  RH  030%=      5-min Rain = 0
KBR1 101950Z 19007KT 08/M09 A3019 RMK A01 T00831088  RH  029%=      5-min Rain = 0
KBR1 101951Z 22007KT 08/M09 A3019 RMK A01 T00821089  RH  029%=      5-min Rain = 0
KBR1 101952Z 24010KT 08/M09 A3019 RMK A01 T00841087  RH  029%=      5-min Rain = 0
KBR1 101953Z 24009KT 08/M09 A3019 RMK A01 T00841090  RH  028%=      5-min Rain = 0
KBR1 101954Z 23006KT 08/M09 A3019 RMK A01 T00811090  RH  029%=      5-min Rain = 0
KBR1 101955Z 21007KT 08/M09 A3019 RMK A01 T00821089  RH  029%=      5-min Rain = 0
KBR1 101956Z 21007G13KT 08/M09 A3019 RMK A01 T00821089  RH  029%=      5-min Rain = 0
KBR1 101957Z 22011KT 08/M08 A3019 RMK A01 T00831083  RH  030%=      5-min Rain = 0
KBR1 101958Z 21009KT 08/M08 A3019 RMK A01 T00831081  RH  030%=      5-min Rain = 0
KBR1 101959Z 20007KT 08/M08 A3019 RMK A01 T00811082  RH  031%=      5-min Rain = 0
KBR1 102000Z 22008KT 08/M08 A3019 RMK A01 T00811080  RH  031%=      5-min Rain = 0
KBR1 102001Z 21008KT 08/M08 A3019 RMK A01 T00811079  RH  031%=      5-min Rain = 0
KBR1 102002Z 20005KT 08/M08 A3018 RMK A01 T00831077  RH  031%=      5-min Rain = 0
KBR1 102003Z 23008KT 09/M07 A3018 RMK A01 T00881074  RH  031%=      5-min Rain = 0
KBR1 102004Z 23007KT 09/M08 A3018 RMK A01 T00881079  RH  030%=      5-min Rain = 0
KBR1 102005Z 23008KT 09/M08 A3018 RMK A01 T00881080  RH  030%=      5-min Rain = 0
KBR1 102006Z 23008KT 09/M08 A3018 RMK A01 T00871081  RH  030%=      5-min Rain = 0
KBR1 102007Z 22008KT 09/M08 A3018 RMK A01 T00881080  RH  030%=      5-min Rain = 0
KBR1 102008Z 22008KT 09/M08 A3018 RMK A01 T00881082  RH  029%=      5-min Rain = 0
KBR1 102009Z 22011KT 09/M08 A3018 RMK A01 T00881079  RH  030%=      5-min Rain = 0
KBR1 102010Z 20011KT 09/M08 A3018 RMK A01 T00881078  RH  030%=      5-min Rain = 0
KBR1 102011Z 19010KT 09/M08 A3018 RMK A01 T00861080  RH  030%=      5-min Rain = 0
KBR1 102012Z 19007KT 08/M08 A3018 RMK A01 T00841080  RH  030%=      5-min Rain = 0
KBR1 102013Z 18008KT 08/M08 A3018 RMK A01 T00831081  RH  031%=      5-min Rain = 0
KBR1 102014Z 19009KT 08/M08 A3018 RMK A01 T00841077  RH  031%=      5-min Rain = 0
KBR1 102015Z 19010KT 09/M08 A3018 RMK A01 T00851077  RH  031%=      5-min Rain = 0
KBR1 102016Z 18009KT 09/M08 A3018 RMK A01 T00851078  RH  031%=      5-min Rain = 0
KBR1 102017Z 19008KT 09/M08 A3018 RMK A01 T00851077  RH  031%=      5-min Rain = 0
KBR1 102018Z 19007KT 09/M08 A3018 RMK A01 T00861075  RH  031%=      5-min Rain = 0
KBR1 102019Z 18009KT 09/M08 A3018 RMK A01 T00881075  RH  031%=      5-min Rain = 0
KBR1 102020Z 17010KT 09/M08 A3018 RMK A01 T00871075  RH  031%=      5-min Rain = 0
KBR1 102021Z 17009KT 09/M08 A3018 RMK A01 T00861076  RH  031%=      5-min Rain = 0
KBR1 102022Z 19013KT 09/M07 A3018 RMK A01 T00881072  RH  032%=      5-min Rain = 0
KBR1 102023Z 19010KT 09/M07 A3018 RMK A01 T00901070  RH  031%=      5-min Rain = 0
KBR1 102024Z 19007KT 09/M07 A3018 RMK A01 T00901073  RH  031%=      5-min Rain = 0
KBR1 102025Z 19008KT 09/M08 A3018 RMK A01 T00881075  RH  031%=      5-min Rain = 0
KBR1 102026Z 20007KT 09/M08 A3018 RMK A01 T00881075  RH  031%=      5-min Rain = 0
KBR1 102027Z 19007KT 09/M08 A3018 RMK A01 T00881075  RH  031%=      5-min Rain = 0
KBR1 102028Z 19005KT 09/M08 A3018 RMK A01 T00871077  RH  031%=      5-min Rain = 0
KBR1 102029Z 17006KT 09/M07 A3018 RMK A01 T00861074  RH  031%=      5-min Rain = 0
KBR1 102030Z 19007KT 09/M07 A3018 RMK A01 T00901071  RH  031%=      5-min Rain = 0
KBR1 102031Z 22005KT 09/M07 A3018 RMK A01 T00901071  RH  031%=      5-min Rain = 0
KBR1 102032Z 22005KT 09/M07 A3018 RMK A01 T00931069  RH  031%=      5-min Rain = 0
KBR1 102033Z 20005KT 09/M07 A3017 RMK A01 T00931071  RH  031%=      5-min Rain = 0
KBR1 102034Z 19009KT 09/M07 A3017 RMK A01 T00941070  RH  031%=      5-min Rain = 0
KBR1 102035Z 19009KT 09/M07 A3017 RMK A01 T00941070  RH  031%=      5-min Rain = 0
KBR1 102036Z 17008KT 09/M07 A3017 RMK A01 T00931071  RH  031%=      5-min Rain = 0
KBR1 102037Z 18008KT 09/M07 A3017 RMK A01 T00921071  RH  031%=      5-min Rain = 0
KBR1 102038Z 20010KT 09/M07 A3017 RMK A01 T00941069  RH  031%=      5-min Rain = 0
KBR1 102039Z 20009KT 09/M07 A3017 RMK A01 T00931070  RH  031%=      5-min Rain = 0
KBR1 102040Z 21010KT 09/M07 A3017 RMK A01 T00931069  RH  031%=      5-min Rain = 0
KBR1 102041Z 20011KT 09/M07 A3017 RMK A01 T00921068  RH  032%=      5-min Rain = 0
KBR1 102042Z 21010KT 09/M07 A3017 RMK A01 T00921069  RH  032%=      5-min Rain = 0
KBR1 102043Z 21009KT 09/M07 A3017 RMK A01 T00911068  RH  032%=      5-min Rain = 0
KBR1 102044Z 20010KT 09/M07 A3017 RMK A01 T00931066  RH  032%=      5-min Rain = 0
KBR1 102045Z 20008KT 09/M07 A3017 RMK A01 T00931067  RH  032%=      5-min Rain = 0
KBR1 102046Z 19009KT 09/M07 A3017 RMK A01 T00921068  RH  032%=      5-min Rain = 0
KBR1 102047Z 20007KT 09/M07 A3017 RMK A01 T00901069  RH  032%=      5-min Rain = 0
KBR1 102048Z 21006KT 09/M07 A3017 RMK A01 T00901068  RH  032%=      5-min Rain = 0
KBR1 102049Z 22005KT 09/M07 A3017 RMK A01 T00891070  RH  032%=      5-min Rain = 0
KBR1 102050Z 22005KT 09/M07 A3017 RMK A01 T00891067  RH  033%=      5-min Rain = 0
KBR1 102051Z 20005KT 09/M06 A3017 RMK A01 T00921064  RH  033%=      5-min Rain = 0
KBR1 102052Z 19008KT 09/M06 A3017 RMK A01 T00941063  RH  032%=      5-min Rain = 0
KBR1 102053Z 17011KT 10/M07 A3017 RMK A01 T00951065  RH  032%=      5-min Rain = 0
KBR1 102054Z 17010KT 09/M07 A3017 RMK A01 T00941066  RH  032%=      5-min Rain = 0
KBR1 102055Z 18009KT 09/M06 A3017 RMK A01 T00941064  RH  032%=      5-min Rain = 0
KBR1 102056Z 18010KT 09/M07 A3017 RMK A01 T00931066  RH  032%=      5-min Rain = 0
KBR1 102057Z 17009KT 09/M07 A3017 RMK A01 T00921066  RH  032%=      5-min Rain = 0
KBR1 102058Z 17009KT 09/M07 A3017 RMK A01 T00921065  RH  032%=      5-min Rain = 0
KBR1 102059Z 16010KT 09/M07 A3017 RMK A01 T00921066  RH  032%=      5-min Rain = 0
KBR1 102100Z 16009KT 09/M07 A3017 RMK A01 T00911066  RH  032%=      5-min Rain = 0
KBR1 102101Z 17008KT 09/M06 A3017 RMK A01 T00931063  RH  033%=      5-min Rain = 0
KBR1 102102Z 17006KT 09/M06 A3017 RMK A01 T00941064  RH  032%=      5-min Rain = 0
KBR1 102103Z 20008KT 10/M06 A3017 RMK A01 T00951063  RH  032%=      5-min Rain = 0
KBR1 102104Z 19008KT 10/M06 A3017 RMK A01 T00951064  RH  032%=      5-min Rain = 0
KBR1 102105Z 19008KT 09/M06 A3017 RMK A01 T00941063  RH  032%=      5-min Rain = 0
KBR1 102106Z 19006KT 09/M06 A3017 RMK A01 T00941064  RH  032%=      5-min Rain = 0
KBR1 102107Z 18007G12KT 09/M06 A3017 RMK A01 T00941063  RH  032%=      5-min Rain = 0
KBR1 102108Z 19013KT 10/M06 A3017 RMK A01 T00951062  RH  032%=      5-min Rain = 0
KBR1 102109Z 19012KT 09/M06 A3017 RMK A01 T00941063  RH  032%=      5-min Rain = 0
KBR1 102110Z 20010KT 10/M06 A3018 RMK A01 T00951061  RH  033%=      5-min Rain = 0
KBR1 102111Z 21010KT 10/M06 A3018 RMK A01 T00961061  RH  033%=      5-min Rain = 0
KBR1 102112Z 20008KT 10/M06 A3018 RMK A01 T00961062  RH  032%=      5-min Rain = 0
KBR1 102113Z 21009KT 10/M06 A3018 RMK A01 T00971061  RH  032%=      5-min Rain = 0
KBR1 102114Z 21008KT 10/M06 A3018 RMK A01 T00981062  RH  032%=      5-min Rain = 0
KBR1 102115Z 20008KT 10/M06 A3018 RMK A01 T00971063  RH  032%=      5-min Rain = 0
KBR1 102116Z 21007KT 10/M06 A3018 RMK A01 T00951064  RH  032%=      5-min Rain = 0
KBR1 102117Z 19005KT 09/M06 A3018 RMK A01 T00931064  RH  032%=      5-min Rain = 0
KBR1 102118Z 21007KT 09/M06 A3018 RMK A01 T00931063  RH  033%=      5-min Rain = 0
KBR1 102119Z 21007KT 09/M06 A3018 RMK A01 T00941061  RH  033%=      5-min Rain = 0
KBR1 102120Z 22007KT 10/M06 A3018 RMK A01 T00951060  RH  033%=      5-min Rain = 0
KBR1 102121Z 22007KT 10/M06 A3018 RMK A01 T00971058  RH  033%=      5-min Rain = 0
KBR1 102122Z 18009KT 10/M06 A3018 RMK A01 T00981058  RH  033%=      5-min Rain = 0
KBR1 102123Z 19010KT 10/M06 A3018 RMK A01 T00981060  RH  032%=      5-min Rain = 0
KBR1 102124Z 20010KT 10/M06 A3018 RMK A01 T00971060  RH  033%=      5-min Rain = 0
KBR1 102125Z 20008KT 10/M06 A3018 RMK A01 T00971060  RH  033%=      5-min Rain = 0
KBR1 102126Z 19009KT 10/M06 A3018 RMK A01 T00971058  RH  033%=      5-min Rain = 0
KBR1 102127Z 19010KT 10/M06 A3018 RMK A01 T00991057  RH  033%=      5-min Rain = 0
KBR1 102128Z 18012KT 10/M06 A3017 RMK A01 T00991058  RH  033%=      5-min Rain = 0
KBR1 102129Z 18011KT 10/M06 A3018 RMK A01 T00971059  RH  033%=      5-min Rain = 0
KBR1 102130Z 19010KT 10/M06 A3018 RMK A01 T00961059  RH  033%=      5-min Rain = 0
KBR1 102131Z 18011KT 10/M06 A3017 RMK A01 T00961059  RH  033%=      5-min Rain = 0
KBR1 102132Z 18009KT 10/M06 A3018 RMK A01 T00951059  RH  033%=      5-min Rain = 0
KBR1 102133Z 18008KT 10/M06 A3018 RMK A01 T00951060  RH  033%=      5-min Rain = 0
KBR1 102134Z 19009KT 09/M06 A3018 RMK A01 T00941060  RH  033%=      5-min Rain = 0
KBR1 102135Z 20008KT 09/M06 A3018 RMK A01 T00941060  RH  033%=      5-min Rain = 0
KBR1 102136Z 18007KT 10/M06 A3018 RMK A01 T00951059  RH  033%=      5-min Rain = 0
KBR1 102137Z 17006KT 10/M06 A3018 RMK A01 T00971057  RH  033%=      5-min Rain = 0
KBR1 102138Z 18007KT 10/M06 A3018 RMK A01 T00981058  RH  033%=      5-min Rain = 0
KBR1 102139Z 20006KT 10/M06 A3018 RMK A01 T00981058  RH  033%=      5-min Rain = 0
KBR1 102140Z 21008KT 10/M06 A3018 RMK A01 T00991057  RH  033%=      5-min Rain = 0
KBR1 102141Z 20008KT 10/M06 A3018 RMK A01 T01001057  RH  033%=      5-min Rain = 0
KBR1 102142Z 21009KT 10/M06 A3018 RMK A01 T01001056  RH  033%=      5-min Rain = 0
KBR1 102143Z 22009KT 10/M06 A3018 RMK A01 T01001057  RH  033%=      5-min Rain = 0
KBR1 102144Z 21011KT 10/M06 A3017 RMK A01 T00991056  RH  033%=      5-min Rain = 0
KBR1 102145Z 21007KT 10/M06 A3018 RMK A01 T00981058  RH  033%=      5-min Rain = 0
KBR1 102146Z 19006KT 10/M06 A3018 RMK A01 T00961059  RH  033%=      5-min Rain = 0
KBR1 102147Z 19005KT 10/M06 A3018 RMK A01 T00961058  RH  033%=      5-min Rain = 0
KBR1 102148Z 18006KT 10/M05 A3018 RMK A01 T00981054  RH  034%=      5-min Rain = 0
KBR1 102149Z 18009KT 10/M05 A3017 RMK A01 T01001052  RH  034%=      5-min Rain = 0
KBR1 102150Z 19007KT 10/M05 A3017 RMK A01 T01001053  RH  033%=      5-min Rain = 0
KBR1 102151Z 17009KT 10/M05 A3017 RMK A01 T01001053  RH  034%=      5-min Rain = 0
KBR1 102152Z 18009KT 10/M05 A3017 RMK A01 T01001053  RH  034%=      5-min Rain = 0
KBR1 102153Z 19010KT 10/M05 A3017 RMK A01 T00991054  RH  034%=      5-min Rain = 0
KBR1 102154Z 20011KT 10/M05 A3017 RMK A01 T00991053  RH  034%=      5-min Rain = 0
KBR1 102155Z 20009KT 10/M05 A3017 RMK A01 T00991053  RH  034%=      5-min Rain = 0
KBR1 102156Z 21009KT 10/M05 A3017 RMK A01 T00991052  RH  034%=      5-min Rain = 0
KBR1 102157Z 20007KT 10/M05 A3017 RMK A01 T00991053  RH  034%=      5-min Rain = 0
KBR1 102158Z 20007KT 10/M05 A3017 RMK A01 T00981052  RH  034%=      5-min Rain = 0
KBR1 102159Z 18009KT 10/M05 A3017 RMK A01 T00991051  RH  035%=      5-min Rain = 0
KBR1 102200Z 18007KT 10/M05 A3017 RMK A01 T00991050  RH  034%=      5-min Rain = 0
KBR1 102201Z 18006KT 10/M05 A3017 RMK A01 T00991051  RH  034%=      5-min Rain = 0
KBR1 102202Z 19009KT 10/M05 A3017 RMK A01 T00991050  RH  035%=      5-min Rain = 0
KBR1 102203Z 18009KT 10/M05 A3017 RMK A01 T01001050  RH  035%=      5-min Rain = 0
KBR1 102204Z 20008KT 10/M05 A3017 RMK A01 T00991050  RH  035%=      5-min Rain = 0
KBR1 102205Z 20007KT 10/M05 A3017 RMK A01 T00981051  RH  035%=      5-min Rain = 0
KBR1 102206Z 20006KT 10/M05 A3017 RMK A01 T00971051  RH  035%=      5-min Rain = 0
KBR1 102207Z 21008KT 10/M05 A3017 RMK A01 T00981049  RH  035%=      5-min Rain = 0
KBR1 102208Z 22008KT 10/M05 A3017 RMK A01 T00991049  RH  035%=      5-min Rain = 0
KBR1 102209Z 22007KT 10/M05 A3017 RMK A01 T00991050  RH  035%=      5-min Rain = 0
KBR1 102210Z 20008KT 10/M05 A3017 RMK A01 T00981050  RH  035%=      5-min Rain = 0
KBR1 102211Z 19006KT 10/M05 A3017 RMK A01 T00971050  RH  035%=      5-min Rain = 0
KBR1 102212Z 22007KT 10/M05 A3017 RMK A01 T00971050  RH  035%=      5-min Rain = 0
KBR1 102213Z 22006KT 10/M05 A3017 RMK A01 T00981048  RH  035%=      5-min Rain = 0
KBR1 102214Z 21006KT 10/M05 A3017 RMK A01 T00991048  RH  035%=      5-min Rain = 0
KBR1 102215Z 22005KT 10/M05 A3017 RMK A01 T00991049  RH  035%=      5-min Rain = 0
KBR1 102216Z 22005KT 10/M05 A3017 RMK A01 T00991049  RH  035%=      5-min Rain = 0
KBR1 102217Z 20007KT 10/M05 A3017 RMK A01 T01001047  RH  035%=      5-min Rain = 0
KBR1 102218Z 17006KT 10/M05 A3017 RMK A01 T01011047  RH  035%=      5-min Rain = 0
KBR1 102219Z 19006KT 10/M05 A3017 RMK A01 T01001045  RH  036%=      5-min Rain = 0
KBR1 102220Z 19008KT 10/M04 A3017 RMK A01 T01001044  RH  036%=      5-min Rain = 0
KBR1 102221Z 17008KT 10/M04 A3017 RMK A01 T01001043  RH  036%=      5-min Rain = 0
KBR1 102222Z 19008KT 10/M04 A3017 RMK A01 T01001042  RH  037%=      5-min Rain = 0
KBR1 102223Z 18007KT 10/M04 A3017 RMK A01 T00991041  RH  037%=      5-min Rain = 0
KBR1 102224Z 17008KT 10/M04 A3017 RMK A01 T01001040  RH  037%=      5-min Rain = 0
KBR1 102225Z 18006KT 10/M04 A3017 RMK A01 T01001041  RH  037%=      5-min Rain = 0
KBR1 102226Z 18007KT 10/M04 A3017 RMK A01 T01001041  RH  037%=      5-min Rain = 0
KBR1 102227Z 18007KT 10/M04 A3017 RMK A01 T00991042  RH  037%=      5-min Rain = 0
KBR1 102228Z 19008KT 10/M04 A3017 RMK A01 T00991042  RH  037%=      5-min Rain = 0
KBR1 102229Z 18006KT 10/M04 A3017 RMK A01 T00981042  RH  037%=      5-min Rain = 0
KBR1 102230Z 18007KT 10/M04 A3017 RMK A01 T00981041  RH  037%=      5-min Rain = 0
KBR1 102231Z 19007KT 10/M04 A3017 RMK A01 T00981040  RH  037%=      5-min Rain = 0
KBR1 102232Z 19007KT 10/M04 A3017 RMK A01 T00991041  RH  037%=      5-min Rain = 0
KBR1 102233Z 20006KT 10/M04 A3017 RMK A01 T00981040  RH  037%=      5-min Rain = 0
KBR1 102234Z 21006KT 10/M04 A3017 RMK A01 T00991040  RH  037%=      5-min Rain = 0
KBR1 102235Z 18005KT 10/M04 A3017 RMK A01 T00991039  RH  037%=      5-min Rain = 0
KBR1 102236Z 17005KT 10/M04 A3017 RMK A01 T01001039  RH  037%=      5-min Rain = 0
KBR1 102237Z 20006KT 10/M04 A3017 RMK A01 T01001040  RH  037%=      5-min Rain = 0
KBR1 102238Z 19008KT 10/M04 A3017 RMK A01 T01001039  RH  037%=      5-min Rain = 0
KBR1 102239Z 18009KT 10/M04 A3017 RMK A01 T01001039  RH  037%=      5-min Rain = 0
KBR1 102240Z 19007KT 10/M04 A3017 RMK A01 T00991039  RH  038%=      5-min Rain = 0
KBR1 102241Z 18008KT 10/M04 A3017 RMK A01 T00991038  RH  038%=      5-min Rain = 0
KBR1 102242Z 17007KT 10/M04 A3017 RMK A01 T00991038  RH  038%=      5-min Rain = 0
KBR1 102243Z 17007KT 10/M04 A3017 RMK A01 T00991037  RH  038%=      5-min Rain = 0
KBR1 102244Z 18009KT 10/M04 A3017 RMK A01 T00991037  RH  038%=      5-min Rain = 0
KBR1 102245Z 19011KT 10/M04 A3017 RMK A01 T00991038  RH  038%=      5-min Rain = 0
KBR1 102246Z 18010KT 10/M04 A3017 RMK A01 T00981039  RH  038%=      5-min Rain = 0
KBR1 102247Z 19009KT 10/M04 A3017 RMK A01 T00971040  RH  038%=      5-min Rain = 0
KBR1 102248Z 19008KT 10/M04 A3017 RMK A01 T00971040  RH  038%=      5-min Rain = 0
KBR1 102249Z 19008KT 10/M04 A3017 RMK A01 T00971041  RH  038%=      5-min Rain = 0
KBR1 102250Z 20008KT 10/M04 A3017 RMK A01 T00971040  RH  038%=      5-min Rain = 0
KBR1 102251Z 19008KT 10/M04 A3017 RMK A01 T00971040  RH  038%=      5-min Rain = 0
KBR1 102252Z 17008KT 10/M04 A3017 RMK A01 T00971040  RH  038%=      5-min Rain = 0
KBR1 102253Z 18008KT 10/M04 A3017 RMK A01 T00961040  RH  038%=      5-min Rain = 0
KBR1 102254Z 18006KT 10/M04 A3018 RMK A01 T00961040  RH  038%=      5-min Rain = 0
KBR1 102255Z 18006KT 10/M04 A3018 RMK A01 T00961040  RH  038%=      5-min Rain = 0
KBR1 102256Z 18007KT 10/M04 A3018 RMK A01 T00951041  RH  038%=      5-min Rain = 0
KBR1 102257Z 18007KT 10/M04 A3018 RMK A01 T00951040  RH  038%=      5-min Rain = 0
KBR1 102258Z 18009KT 10/M04 A3018 RMK A01 T00951041  RH  038%=      5-min Rain = 0
KBR1 102259Z 19008KT 10/M04 A3018 RMK A01 T00951041  RH  038%=      5-min Rain = 0
KBR1 102300Z 19008KT 09/M04 A3018 RMK A01 T00941041  RH  038%=      5-min Rain = 0
KBR1 102301Z 19008KT 09/M04 A3018 RMK A01 T00941041  RH  038%=      5-min Rain = 0
KBR1 102302Z 19007KT 09/M04 A3018 RMK A01 T00931042  RH  038%=      5-min Rain = 0
KBR1 102303Z 19007KT 09/M04 A3018 RMK A01 T00931041  RH  038%=      5-min Rain = 0
KBR1 102304Z 18008KT 09/M04 A3018 RMK A01 T00931042  RH  038%=      5-min Rain = 0
KBR1 102305Z 20009KT 09/M04 A3018 RMK A01 T00921042  RH  038%=      5-min Rain = 0
KBR1 102306Z 20008KT 09/M04 A3018 RMK A01 T00921043  RH  038%=      5-min Rain = 0
KBR1 102307Z 20008KT 09/M04 A3018 RMK A01 T00911043  RH  038%=      5-min Rain = 0
KBR1 102308Z 19008KT 09/M04 A3018 RMK A01 T00911043  RH  038%=      5-min Rain = 0
KBR1 102309Z 19008KT 09/M04 A3018 RMK A01 T00901044  RH  039%=      5-min Rain = 0
KBR1 102310Z 19007KT 09/M04 A3018 RMK A01 T00891044  RH  039%=      5-min Rain = 0
KBR1 102311Z 19007KT 09/M04 A3018 RMK A01 T00881044  RH  039%=      5-min Rain = 0
KBR1 102312Z 19006KT 09/M04 A3018 RMK A01 T00881044  RH  039%=      5-min Rain = 0
KBR1 102313Z 19006KT 09/M04 A3018 RMK A01 T00861044  RH  040%=      5-min Rain = 0
KBR1 102314Z 19006KT 09/M04 A3018 RMK A01 T00851044  RH  040%=      5-min Rain = 0
KBR1 102315Z 18006KT 09/M04 A3018 RMK A01 T00851043  RH  040%=      5-min Rain = 0
KBR1 102316Z 18006KT 09/M04 A3018 RMK A01 T00851043  RH  040%=      5-min Rain = 0
KBR1 102317Z 18006KT 08/M04 A3018 RMK A01 T00841043  RH  040%=      5-min Rain = 0
KBR1 102318Z 18006KT 08/M04 A3018 RMK A01 T00831043  RH  041%=      5-min Rain = 0
KBR1 102319Z 18006KT 08/M04 A3018 RMK A01 T00821043  RH  041%=      5-min Rain = 0
KBR1 102320Z 19006KT 08/M04 A3018 RMK A01 T00811043  RH  041%=      5-min Rain = 0
KBR1 102321Z 19006KT 08/M04 A3018 RMK A01 T00811044  RH  041%=      5-min Rain = 0
KBR1 102322Z 19006KT 08/M04 A3018 RMK A01 T00791044  RH  041%=      5-min Rain = 0
KBR1 102323Z 19006KT 08/M04 A3018 RMK A01 T00781044  RH  041%=      5-min Rain = 0
KBR1 102324Z 19006KT 08/M05 A3018 RMK A01 T00771045  RH  042%=      5-min Rain = 0
KBR1 102325Z 19006KT 08/M04 A3018 RMK A01 T00761044  RH  042%=      5-min Rain = 0
KBR1 102326Z 18006KT 08/M05 A3018 RMK A01 T00751045  RH  042%=      5-min Rain = 0
KBR1 102327Z 19006KT 07/M05 A3018 RMK A01 T00731046  RH  043%=      5-min Rain = 0
KBR1 102328Z 19006KT 07/M05 A3018 RMK A01 T00721046  RH  043%=      5-min Rain = 0
KBR1 102329Z 19006KT 07/M05 A3018 RMK A01 T00711046  RH  043%=      5-min Rain = 0
KBR1 102330Z 19006KT 07/M05 A3018 RMK A01 T00701046  RH  043%=      5-min Rain = 0
KBR1 102331Z 19006KT 07/M05 A3018 RMK A01 T00691046  RH  044%=      5-min Rain = 0
KBR1 102332Z 19006KT 07/M05 A3018 RMK A01 T00691046  RH  044%=      5-min Rain = 0
KBR1 102333Z 18006KT 07/M05 A3018 RMK A01 T00681046  RH  044%=      5-min Rain = 0
KBR1 102334Z 18006KT 07/M05 A3018 RMK A01 T00671046  RH  044%=      5-min Rain = 0
KBR1 102335Z 18006KT 07/M05 A3018 RMK A01 T00671047  RH  044%=      5-min Rain = 0
KBR1 102336Z 18006KT 07/M05 A3018 RMK A01 T00661047  RH  044%=      5-min Rain = 0
KBR1 102337Z 18007KT 07/M05 A3018 RMK A01 T00651047  RH  044%=      5-min Rain = 0
KBR1 102338Z 18007KT 07/M05 A3018 RMK A01 T00651047  RH  045%=      5-min Rain = 0
KBR1 102339Z 18006KT 07/M05 A3018 RMK A01 T00651047  RH  045%=      5-min Rain = 0
KBR1 102340Z 18006KT 06/M05 A3018 RMK A01 T00641047  RH  045%=      5-min Rain = 0
KBR1 102341Z 18006KT 06/M05 A3018 RMK A01 T00641047  RH  045%=      5-min Rain = 0
KBR1 102342Z 18006KT 06/M05 A3018 RMK A01 T00641047  RH  045%=      5-min Rain = 0
KBR1 102343Z 18006KT 06/M05 A3018 RMK A01 T00631048  RH  045%=      5-min Rain = 0
KBR1 102344Z 18006KT 06/M05 A3018 RMK A01 T00631047  RH  045%=      5-min Rain = 0
KBR1 102345Z 18007KT 06/M05 A3018 RMK A01 T00621048  RH  045%=      5-min Rain = 0
KBR1 102346Z 18007KT 06/M05 A3018 RMK A01 T00621048  RH  045%=      5-min Rain = 0
KBR1 102347Z 18007KT 06/M05 A3018 RMK A01 T00611048  RH  045%=      5-min Rain = 0
KBR1 102348Z 18007KT 06/M05 A3018 RMK A01 T00601048  RH  046%=      5-min Rain = 0
KBR1 102349Z 19006KT 06/M05 A3018 RMK A01 T00611048  RH  046%=      5-min Rain = 0
KBR1 102350Z 19006KT 06/M05 A3018 RMK A01 T00601048  RH  046%=      5-min Rain = 0
KBR1 102351Z 18006KT 06/M05 A3018 RMK A01 T00601048  RH  046%=      5-min Rain = 0
KBR1 102352Z 18006KT 06/M05 A3019 RMK A01 T00601047  RH  046%=      5-min Rain = 0
KBR1 102353Z 18006KT 06/M05 A3019 RMK A01 T00601047  RH  046%=      5-min Rain = 0
KBR1 102354Z 18005KT 06/M05 A3019 RMK A01 T00601047  RH  046%=      5-min Rain = 0
KBR1 102355Z 18006KT 06/M05 A3019 RMK A01 T00601047  RH  046%=      5-min Rain = 0
KBR1 102356Z 18006KT 06/M05 A3019 RMK A01 T00601047  RH  046%=      5-min Rain = 0
KBR1 102357Z 18006KT 06/M05 A3019 RMK A01 T00601047  RH  046%=      5-min Rain = 0
KBR1 102358Z 18006KT 06/M05 A3019 RMK A01 T00601047  RH  046%=      5-min Rain = 0
KBR1 102359Z 17006KT 06/M05 A3019 RMK A01 T00591047  RH  046%=      5-min Rain = 0
KBR1 110000Z 17006KT 06/M05 A3019 RMK A01 T00591048  RH  046%=      5-min Rain = 0
KBR1 110001Z 17006KT 06/M05 A3019 RMK A01 T00591048  RH  046%=      5-min Rain = 0
KBR1 110002Z 17006KT 06/M05 A3019 RMK A01 T00581048  RH  047%=      5-min Rain = 0
KBR1 110003Z 17006KT 06/M05 A3019 RMK A01 T00581047  RH  047%=      5-min Rain = 0
KBR1 110004Z 17006KT 06/M05 A3019 RMK A01 T00581047  RH  047%=      5-min Rain = 0
KBR1 110005Z 17006KT 06/M05 A3019 RMK A01 T00591046  RH  047%=      5-min Rain = 0
KBR1 110006Z 17006KT 06/M05 A3019 RMK A01 T00601046  RH  046%=      5-min Rain = 0
KBR1 110007Z 17006KT 06/M05 A3019 RMK A01 T00611046  RH  046%=      5-min Rain = 0
KBR1 110008Z 17007KT 06/M05 A3019 RMK A01 T00611046  RH  046%=      5-min Rain = 0
KBR1 110009Z 17007KT 06/M05 A3019 RMK A01 T00611047  RH  046%=      5-min Rain = 0
KBR1 110010Z 17007KT 06/M05 A3019 RMK A01 T00611047  RH  046%=      5-min Rain = 0
KBR1 110011Z 17006KT 06/M05 A3019 RMK A01 T00601047  RH  046%=      5-min Rain = 0
KBR1 110012Z 17006KT 06/M05 A3019 RMK A01 T00611047  RH  046%=      5-min Rain = 0
KBR1 110013Z 17006KT 06/M05 A3019 RMK A01 T00601047  RH  046%=      5-min Rain = 0
KBR1 110014Z 17006KT 06/M05 A3019 RMK A01 T00601047  RH  046%=      5-min Rain = 0
KBR1 110015Z 16006KT 06/M05 A3019 RMK A01 T00601046  RH  046%=      5-min Rain = 0
KBR1 110016Z 16006KT 06/M05 A3019 RMK A01 T00621045  RH  046%=      5-min Rain = 0
KBR1 110017Z 16006KT 06/M05 A3019 RMK A01 T00611046  RH  046%=      5-min Rain = 0
KBR1 110018Z 16006KT 06/M05 A3019 RMK A01 T00591048  RH  046%=      5-min Rain = 0
KBR1 110019Z 16006KT 06/M05 A3019 RMK A01 T00581047  RH  047%=      5-min Rain = 0
KBR1 110020Z 16006KT 06/M05 A3019 RMK A01 T00581046  RH  047%=      5-min Rain = 0
KBR1 110021Z 16006KT 06/M05 A3019 RMK A01 T00581046  RH  047%=      5-min Rain = 0
KBR1 110022Z 16006KT 06/M05 A3019 RMK A01 T00591046  RH  047%=      5-min Rain = 0
KBR1 110023Z 16006KT 06/M05 A3019 RMK A01 T00611045  RH  047%=      5-min Rain = 0
KBR1 110024Z 16005KT 06/M04 A302 RMK A01 T00631044  RH  046%=      5-min Rain = 0
KBR1 110025Z 16005KT 07/M04 A302 RMK A01 T00651044  RH  046%=      5-min Rain = 0
KBR1 110026Z 16005KT 07/M05 A302 RMK A01 T00651045  RH  045%=      5-min Rain = 0
KBR1 110027Z 17005KT 07/M05 A302 RMK A01 T00661045  RH  045%=      5-min Rain = 0
KBR1 110028Z 17005KT 07/M04 A302 RMK A01 T00661044  RH  045%=      5-min Rain = 0
KBR1 110029Z 17005KT 07/M05 A302 RMK A01 T00661045  RH  045%=      5-min Rain = 0
KBR1 110030Z 16004KT 06/M05 A302 RMK A01 T00641046  RH  045%=      5-min Rain = 0
KBR1 110031Z 16004KT 06/M05 A302 RMK A01 T00591049  RH  046%=      5-min Rain = 0
KBR1 110032Z 15003KT 05/M05 A302 RMK A01 T00531049  RH  048%=      5-min Rain = 0
KBR1 110033Z 17002KT 05/M05 A302 RMK A01 T00491048  RH  049%=      5-min Rain = 0
KBR1 110034Z 17001KT 05/M05 A302 RMK A01 T00481048  RH  050%=      5-min Rain = 0
KBR1 110035Z 20000KT 05/M05 A302 RMK A01 T00471048  RH  050%=      5-min Rain = 0
KBR1 110036Z 19001KT 05/M05 A302 RMK A01 T00461048  RH  050%=      5-min Rain = 0
KBR1 110037Z 18002KT 05/M05 A302 RMK A01 T00471048  RH  050%=      5-min Rain = 0
KBR1 110038Z 17002KT 05/M05 A302 RMK A01 T00461048  RH  050%=      5-min Rain = 0
KBR1 110039Z 18002KT 05/M05 A302 RMK A01 T00461048  RH  051%=      5-min Rain = 0
KBR1 110040Z 17002KT 05/M05 A302 RMK A01 T00461047  RH  051%=      5-min Rain = 0
KBR1 110041Z 17002KT 05/M05 A3021 RMK A01 T00471046  RH  051%=      5-min Rain = 0
KBR1 110042Z 17002KT 05/M05 A3021 RMK A01 T00491046  RH  050%=      5-min Rain = 0
KBR1 110043Z 16003KT 05/M05 A3021 RMK A01 T00511045  RH  050%=      5-min Rain = 0
KBR1 110044Z 16002KT 05/M05 A3021 RMK A01 T00531045  RH  049%=      5-min Rain = 0
KBR1 110045Z 16002KT 05/M05 A3021 RMK A01 T00541045  RH  049%=      5-min Rain = 0
KBR1 110046Z 16002KT 05/M05 A3021 RMK A01 T00541045  RH  049%=      5-min Rain = 0
KBR1 110047Z 17002KT 05/M05 A3021 RMK A01 T00541046  RH  049%=      5-min Rain = 0
KBR1 110048Z 17003KT 05/M05 A3021 RMK A01 T00541046  RH  049%=      5-min Rain = 0
KBR1 110049Z 16003KT 05/M05 A3021 RMK A01 T00541046  RH  049%=      5-min Rain = 0
KBR1 110050Z 14004KT 05/M05 A3021 RMK A01 T00531046  RH  049%=      5-min Rain = 0
KBR1 110051Z 14006KT 05/M05 A3021 RMK A01 T00511047  RH  049%=      5-min Rain = 0
KBR1 110052Z 14006KT 04/M05 A3021 RMK A01 T00441051  RH  050%=      5-min Rain = 0
KBR1 110053Z 15006KT 04/M05 A3021 RMK A01 T00411048  RH  052%=      5-min Rain = 0
KBR1 110054Z 14006KT 04/M05 A3021 RMK A01 T00431045  RH  053%=      5-min Rain = 0
KBR1 110055Z 11007KT 05/M04 A3021 RMK A01 T00461043  RH  053%=      5-min Rain = 0
KBR1 110056Z 13007KT 05/M05 A3021 RMK A01 T00451045  RH  052%=      5-min Rain = 0
KBR1 110057Z 12006KT 04/M05 A3022 RMK A01 T00431046  RH  052%=      5-min Rain = 0
KBR1 110058Z 12006KT 04/M05 A3022 RMK A01 T00411046  RH  053%=      5-min Rain = 0
KBR1 110059Z 12006KT 04/M05 A3022 RMK A01 T00401046  RH  054%=      5-min Rain = 0
KBR1 110100Z 13007KT 04/M05 A3022 RMK A01 T00381046  RH  054%=      5-min Rain = 0
KBR1 110101Z 13006KT 04/M05 A3022 RMK A01 T00371046  RH  055%=      5-min Rain = 0
KBR1 110102Z 13006KT 04/M05 A3022 RMK A01 T00371046  RH  055%=      5-min Rain = 0
KBR1 110103Z 13007KT 04/M05 A3022 RMK A01 T00361046  RH  055%=      5-min Rain = 0
KBR1 110104Z 13007KT 04/M05 A3022 RMK A01 T00351046  RH  055%=      5-min Rain = 0
KBR1 110105Z 13007KT 03/M05 A3022 RMK A01 T00341046  RH  056%=      5-min Rain = 0
KBR1 110106Z 13007KT 03/M05 A3022 RMK A01 T00341046  RH  056%=      5-min Rain = 0
KBR1 110107Z 13007KT 03/M05 A3022 RMK A01 T00341045  RH  056%=      5-min Rain = 0
KBR1 110108Z 13007KT 03/M05 A3022 RMK A01 T00341045  RH  056%=      5-min Rain = 0
KBR1 110109Z 13007KT 03/M05 A3022 RMK A01 T00331045  RH  056%=      5-min Rain = 0
KBR1 110110Z 13007KT 03/M05 A3022 RMK A01 T00331045  RH  056%=      5-min Rain = 0
KBR1 110111Z 13007KT 03/M05 A3022 RMK A01 T00331045  RH  056%=      5-min Rain = 0
KBR1 110112Z 13007KT 03/M05 A3022 RMK A01 T00321045  RH  057%=      5-min Rain = 0
KBR1 110113Z 13007KT 03/M05 A3022 RMK A01 T00321045  RH  057%=      5-min Rain = 0
KBR1 110114Z 13007KT 03/M04 A3022 RMK A01 T00331044  RH  057%=      5-min Rain = 0
KBR1 110115Z 13007KT 04/M04 A3022 RMK A01 T00351043  RH  057%=      5-min Rain = 0
KBR1 110116Z 13007KT 04/M04 A3022 RMK A01 T00351043  RH  056%=      5-min Rain = 0
KBR1 110117Z 13007KT 04/M04 A3022 RMK A01 T00351044  RH  056%=      5-min Rain = 0
KBR1 110118Z 13007KT 03/M04 A3022 RMK A01 T00341044  RH  057%=      5-min Rain = 0
KBR1 110119Z 13007KT 03/M04 A3022 RMK A01 T00331044  RH  057%=      5-min Rain = 0
KBR1 110120Z 13008KT 03/M04 A3023 RMK A01 T00331043  RH  057%=      5-min Rain = 0
KBR1 110121Z 13008KT 03/M04 A3023 RMK A01 T00321043  RH  058%=      5-min Rain = 0
KBR1 110122Z 13008KT 03/M04 A3023 RMK A01 T00321043  RH  058%=      5-min Rain = 0
KBR1 110123Z 14008KT 03/M04 A3023 RMK A01 T00321042  RH  058%=      5-min Rain = 0
KBR1 110124Z 14008KT 03/M04 A3023 RMK A01 T00321042  RH  058%=      5-min Rain = 0
KBR1 110125Z 14007KT 03/M04 A3023 RMK A01 T00321041  RH  058%=      5-min Rain = 0
KBR1 110126Z 14007KT 03/M04 A3023 RMK A01 T00321042  RH  058%=      5-min Rain = 0
KBR1 110127Z 14007KT 03/M04 A3023 RMK A01 T00311042  RH  058%=      5-min Rain = 0
KBR1 110128Z 14008KT 03/M04 A3023 RMK A01 T00311042  RH  059%=      5-min Rain = 0
KBR1 110129Z 14008KT 03/M04 A3023 RMK A01 T00311042  RH  059%=      5-min Rain = 0
KBR1 110130Z 14008KT 03/M04 A3023 RMK A01 T00311041  RH  059%=      5-min Rain = 0
KBR1 110131Z 14008KT 03/M04 A3023 RMK A01 T00301041  RH  059%=      5-min Rain = 0
KBR1 110132Z 14008KT 03/M04 A3023 RMK A01 T00301041  RH  060%=      5-min Rain = 0
KBR1 110133Z 14008KT 03/M04 A3023 RMK A01 T00301041  RH  060%=      5-min Rain = 0
KBR1 110134Z 14008KT 03/M04 A3023 RMK A01 T00301041  RH  060%=      5-min Rain = 0
KBR1 110135Z 14008KT 03/M04 A3023 RMK A01 T00291041  RH  060%=      5-min Rain = 0
KBR1 110136Z 14008KT 03/M04 A3023 RMK A01 T00281042  RH  060%=      5-min Rain = 0
KBR1 110137Z 14009KT 03/M04 A3023 RMK A01 T00271041  RH  061%=      5-min Rain = 0
KBR1 110138Z 14009KT 03/M04 A3023 RMK A01 T00271040  RH  061%=      5-min Rain = 0
KBR1 110139Z 14009KT 03/M04 A3023 RMK A01 T00271039  RH  062%=      5-min Rain = 0
KBR1 110140Z 14009KT 03/M04 A3023 RMK A01 T00271039  RH  062%=      5-min Rain = 0
KBR1 110141Z 14009KT 03/M04 A3023 RMK A01 T00271039  RH  062%=      5-min Rain = 0
KBR1 110142Z 14008KT 03/M04 A3023 RMK A01 T00271038  RH  062%=      5-min Rain = 0
KBR1 110143Z 13008KT 03/M04 A3023 RMK A01 T00271039  RH  062%=      5-min Rain = 0
KBR1 110144Z 13008KT 03/M04 A3023 RMK A01 T00261039  RH  062%=      5-min Rain = 0
KBR1 110145Z 14008KT 02/M04 A3023 RMK A01 T00241040  RH  063%=      5-min Rain = 0
KBR1 110146Z 13007KT 02/M04 A3023 RMK A01 T00231040  RH  063%=      5-min Rain = 0
KBR1 110147Z 13007KT 02/M04 A3023 RMK A01 T00231041  RH  063%=      5-min Rain = 0
KBR1 110148Z 14008KT 02/M04 A3023 RMK A01 T00221041  RH  063%=      5-min Rain = 0
KBR1 110149Z 14008KT 02/M04 A3023 RMK A01 T00221041  RH  063%=      5-min Rain = 0
KBR1 110150Z 14009KT 02/M04 A3023 RMK A01 T00221041  RH  063%=      5-min Rain = 0
KBR1 110151Z 15009KT 02/M04 A3023 RMK A01 T00221040  RH  064%=      5-min Rain = 0
KBR1 110152Z 15009KT 02/M04 A3023 RMK A01 T00241038  RH  064%=      5-min Rain = 0
KBR1 110153Z 15009KT 03/M04 A3023 RMK A01 T00261037  RH  063%=      5-min Rain = 0
KBR1 110154Z 15009KT 03/M04 A3023 RMK A01 T00271036  RH  063%=      5-min Rain = 0
KBR1 110155Z 15009KT 03/M04 A3023 RMK A01 T00281035  RH  063%=      5-min Rain = 0
KBR1 110156Z 15008KT 03/M04 A3023 RMK A01 T00281036  RH  063%=      5-min Rain = 0
KBR1 110157Z 15009KT 03/M04 A3023 RMK A01 T00281036  RH  063%=      5-min Rain = 0
KBR1 110158Z 14009KT 03/M04 A3023 RMK A01 T00271037  RH  063%=      5-min Rain = 0
KBR1 110159Z 14009KT 03/M04 A3024 RMK A01 T00251038  RH  063%=      5-min Rain = 0
KBR1 110200Z 15009KT 02/M04 A3024 RMK A01 T00241038  RH  064%=      5-min Rain = 0
KBR1 110201Z 14009KT 03/M04 A3024 RMK A01 T00251037  RH  064%=      5-min Rain = 0
KBR1 110202Z 14009KT 03/M04 A3023 RMK A01 T00251037  RH  064%=      5-min Rain = 0
KBR1 110203Z 14009KT 03/M04 A3023 RMK A01 T00251037  RH  064%=      5-min Rain = 0
KBR1 110204Z 14009KT 03/M04 A3023 RMK A01 T00261036  RH  064%=      5-min Rain = 0
KBR1 110205Z 14009KT 03/M04 A3023 RMK A01 T00271036  RH  063%=      5-min Rain = 0
KBR1 110206Z 14009KT 03/M04 A3023 RMK A01 T00271036  RH  063%=      5-min Rain = 0
KBR1 110207Z 14009KT 03/M04 A3023 RMK A01 T00261036  RH  064%=      5-min Rain = 0
KBR1 110208Z 14009KT 03/M04 A3023 RMK A01 T00261036  RH  064%=      5-min Rain = 0
KBR1 110209Z 14009KT 03/M04 A3024 RMK A01 T00251037  RH  064%=      5-min Rain = 0
KBR1 110210Z 14009KT 02/M04 A3024 RMK A01 T00241036  RH  064%=      5-min Rain = 0
KBR1 110211Z 14009KT 02/M04 A3024 RMK A01 T00241036  RH  065%=      5-min Rain = 0
KBR1 110212Z 14009KT 02/M04 A3024 RMK A01 T00241036  RH  065%=      5-min Rain = 0
KBR1 110213Z 14009KT 02/M04 A3024 RMK A01 T00241036  RH  065%=      5-min Rain = 0
KBR1 110214Z 14009KT 02/M04 A3024 RMK A01 T00241036  RH  065%=      5-min Rain = 0
KBR1 110215Z 14009KT 02/M04 A3024 RMK A01 T00231036  RH  065%=      5-min Rain = 0
KBR1 110216Z 14008KT 02/M04 A3024 RMK A01 T00231036  RH  065%=      5-min Rain = 0
KBR1 110217Z 14008KT 02/M04 A3024 RMK A01 T00221036  RH  066%=      5-min Rain = 0
KBR1 110218Z 14008KT 02/M04 A3024 RMK A01 T00211036  RH  066%=      5-min Rain = 0
KBR1 110219Z 14008KT 02/M04 A3024 RMK A01 T00201036  RH  066%=      5-min Rain = 0
KBR1 110220Z 14008KT 02/M04 A3024 RMK A01 T00201036  RH  066%=      5-min Rain = 0
KBR1 110221Z 14008KT 02/M04 A3024 RMK A01 T00201036  RH  067%=      5-min Rain = 0
KBR1 110222Z 14008KT 02/M04 A3024 RMK A01 T00201036  RH  067%=      5-min Rain = 0
KBR1 110223Z 14008KT 02/M04 A3024 RMK A01 T00191037  RH  067%=      5-min Rain = 0
KBR1 110224Z 14008KT 02/M04 A3024 RMK A01 T00181037  RH  067%=      5-min Rain = 0
KBR1 110225Z 14008KT 02/M04 A3024 RMK A01 T00171038  RH  067%=      5-min Rain = 0
KBR1 110226Z 14007KT 02/M04 A3024 RMK A01 T00171038  RH  067%=      5-min Rain = 0
KBR1 110227Z 14008KT 02/M04 A3024 RMK A01 T00161038  RH  067%=      5-min Rain = 0
KBR1 110228Z 14008KT 02/M04 A3024 RMK A01 T00161038  RH  067%=      5-min Rain = 0
KBR1 110229Z 14008KT 02/M04 A3024 RMK A01 T00161038  RH  067%=      5-min Rain = 0
KBR1 110230Z 14008KT 02/M04 A3024 RMK A01 T00161038  RH  067%=      5-min Rain = 0
KBR1 110231Z 14008KT 02/M04 A3024 RMK A01 T00151038  RH  068%=      5-min Rain = 0
KBR1 110232Z 14008KT 02/M04 A3024 RMK A01 T00151038  RH  068%=      5-min Rain = 0
KBR1 110233Z 14008KT 02/M04 A3024 RMK A01 T00151038  RH  068%=      5-min Rain = 0
KBR1 110234Z 14008KT 02/M04 A3024 RMK A01 T00151038  RH  068%=      5-min Rain = 0
KBR1 110235Z 14008KT 02/M04 A3024 RMK A01 T00151038  RH  068%=      5-min Rain = 0
KBR1 110236Z 14009KT 02/M04 A3024 RMK A01 T00161038  RH  068%=      5-min Rain = 0
KBR1 110237Z 14009KT 02/M04 A3024 RMK A01 T00161038  RH  067%=      5-min Rain = 0
KBR1 110238Z 15009KT 02/M04 A3024 RMK A01 T00171037  RH  067%=      5-min Rain = 0
KBR1 110239Z 15009KT 02/M04 A3024 RMK A01 T00181037  RH  067%=      5-min Rain = 0
KBR1 110240Z 15008KT 02/M04 A3024 RMK A01 T00181038  RH  067%=      5-min Rain = 0
KBR1 110241Z 15009KT 02/M04 A3024 RMK A01 T00181037  RH  067%=      5-min Rain = 0
KBR1 110242Z 15008KT 02/M04 A3024 RMK A01 T00191037  RH  066%=      5-min Rain = 0
KBR1 110243Z 14008KT 02/M04 A3025 RMK A01 T00191037  RH  066%=      5-min Rain = 0
KBR1 110244Z 14008KT 02/M04 A3025 RMK A01 T00191038  RH  066%=      5-min Rain = 0
KBR1 110245Z 14008KT 02/M04 A3025 RMK A01 T00181038  RH  066%=      5-min Rain = 0
KBR1 110246Z 14009KT 02/M04 A3025 RMK A01 T00181038  RH  066%=      5-min Rain = 0
KBR1 110247Z 14009KT 02/M04 A3025 RMK A01 T00171039  RH  067%=      5-min Rain = 0
KBR1 110248Z 14009KT 02/M04 A3025 RMK A01 T00171039  RH  066%=      5-min Rain = 0
KBR1 110249Z 14008KT 02/M04 A3025 RMK A01 T00181038  RH  066%=      5-min Rain = 0
KBR1 110250Z 14008KT 02/M04 A3025 RMK A01 T00181039  RH  066%=      5-min Rain = 0
KBR1 110251Z 14009KT 02/M04 A3025 RMK A01 T00171039  RH  066%=      5-min Rain = 0
KBR1 110252Z 15009KT 02/M04 A3025 RMK A01 T00171039  RH  066%=      5-min Rain = 0
KBR1 110253Z 14009KT 02/M04 A3025 RMK A01 T00181040  RH  066%=      5-min Rain = 0
KBR1 110254Z 14009KT 02/M04 A3025 RMK A01 T00181040  RH  066%=      5-min Rain = 0
KBR1 110255Z 14009KT 02/M04 A3024 RMK A01 T00181039  RH  065%=      5-min Rain = 0
KBR1 110256Z 14009KT 02/M04 A3024 RMK A01 T00181040  RH  065%=      5-min Rain = 0
KBR1 110257Z 14009KT 02/M04 A3024 RMK A01 T00181040  RH  065%=      5-min Rain = 0
KBR1 110258Z 14009KT 02/M04 A3025 RMK A01 T00181040  RH  066%=      5-min Rain = 0
KBR1 110259Z 14009KT 02/M04 A3025 RMK A01 T00171041  RH  066%=      5-min Rain = 0
KBR1 110300Z 14009KT 02/M04 A3025 RMK A01 T00171041  RH  066%=      5-min Rain = 0
KBR1 110301Z 14009KT 02/M04 A3025 RMK A01 T00171041  RH  066%=      5-min Rain = 0
KBR1 110302Z 14009KT 02/M04 A3025 RMK A01 T00171041  RH  066%=      5-min Rain = 0
KBR1 110303Z 14010KT 02/M04 A3025 RMK A01 T00171041  RH  065%=      5-min Rain = 0
KBR1 110304Z 14010KT 02/M04 A3025 RMK A01 T00181041  RH  065%=      5-min Rain = 0
KBR1 110305Z 14010KT 02/M04 A3025 RMK A01 T00191041  RH  065%=      5-min Rain = 0
KBR1 110306Z 14010KT 02/M04 A3025 RMK A01 T00191041  RH  064%=      5-min Rain = 0
KBR1 110307Z 14010KT 02/M04 A3025 RMK A01 T00201041  RH  064%=      5-min Rain = 0
KBR1 110308Z 14009KT 02/M04 A3024 RMK A01 T00211041  RH  064%=      5-min Rain = 0
KBR1 110309Z 14010KT 02/M04 A3025 RMK A01 T00221041  RH  063%=      5-min Rain = 0
KBR1 110310Z 14010KT 02/M04 A3025 RMK A01 T00231041  RH  062%=      5-min Rain = 0
KBR1 110311Z 14009KT 02/M04 A3025 RMK A01 T00241041  RH  062%=      5-min Rain = 0
KBR1 110312Z 14009KT 02/M04 A3025 RMK A01 T00241042  RH  062%=      5-min Rain = 0
KBR1 110313Z 14009KT 02/M04 A3025 RMK A01 T00241042  RH  062%=      5-min Rain = 0
KBR1 110314Z 14009KT 02/M04 A3025 RMK A01 T00241042  RH  062%=      5-min Rain = 0
KBR1 110315Z 14009KT 02/M04 A3025 RMK A01 T00241042  RH  062%=      5-min Rain = 0
KBR1 110316Z 14009KT 02/M04 A3025 RMK A01 T00241042  RH  062%=      5-min Rain = 0
KBR1 110317Z 14008KT 02/M04 A3025 RMK A01 T00231043  RH  062%=      5-min Rain = 0
KBR1 110318Z 14009KT 02/M04 A3025 RMK A01 T00221043  RH  062%=      5-min Rain = 0
KBR1 110319Z 14008KT 02/M04 A3025 RMK A01 T00211043  RH  062%=      5-min Rain = 0
KBR1 110320Z 14009KT 02/M04 A3025 RMK A01 T00211044  RH  062%=      5-min Rain = 0
KBR1 110321Z 14008KT 02/M04 A3025 RMK A01 T00211044  RH  062%=      5-min Rain = 0
KBR1 110322Z 13008KT 02/M04 A3025 RMK A01 T00201044  RH  062%=      5-min Rain = 0
KBR1 110323Z 14008KT 02/M04 A3025 RMK A01 T00191044  RH  063%=      5-min Rain = 0
KBR1 110324Z 13008KT 02/M05 A3025 RMK A01 T00171045  RH  064%=      5-min Rain = 0
KBR1 110325Z 14008KT 02/M05 A3025 RMK A01 T00151045  RH  064%=      5-min Rain = 0
KBR1 110326Z 14008KT 01/M05 A3025 RMK A01 T00141045  RH  065%=      5-min Rain = 0
KBR1 110327Z 14008KT 01/M05 A3025 RMK A01 T00131045  RH  065%=      5-min Rain = 0
KBR1 110328Z 14007KT 01/M04 A3025 RMK A01 T00141044  RH  065%=      5-min Rain = 0
KBR1 110329Z 14007KT 01/M04 A3025 RMK A01 T00141044  RH  065%=      5-min Rain = 0
KBR1 110330Z 14007KT 01/M05 A3025 RMK A01 T00141045  RH  065%=      5-min Rain = 0
KBR1 110331Z 14007KT 02/M04 A3025 RMK A01 T00151044  RH  065%=      5-min Rain = 0
KBR1 110332Z 14008KT 02/M04 A3025 RMK A01 T00161044  RH  064%=      5-min Rain = 0
KBR1 110333Z 14007KT 02/M05 A3025 RMK A01 T00191045  RH  063%=      5-min Rain = 0
KBR1 110334Z 15008KT 02/M05 A3025 RMK A01 T00211045  RH  062%=      5-min Rain = 0
KBR1 110335Z 15009KT 02/M05 A3025 RMK A01 T00241045  RH  060%=      5-min Rain = 0
KBR1 110336Z 15008KT 03/M05 A3025 RMK A01 T00251046  RH  059%=      5-min Rain = 0
KBR1 110337Z 15008KT 03/M05 A3025 RMK A01 T00261046  RH  059%=      5-min Rain = 0
KBR1 110338Z 15008KT 03/M05 A3025 RMK A01 T00251047  RH  059%=      5-min Rain = 0
KBR1 110339Z 15008KT 03/M05 A3025 RMK A01 T00261048  RH  058%=      5-min Rain = 0
KBR1 110340Z 15009KT 03/M05 A3025 RMK A01 T00261049  RH  058%=      5-min Rain = 0
KBR1 110341Z 15007KT 03/M05 A3025 RMK A01 T00261049  RH  058%=      5-min Rain = 0
KBR1 110342Z 15009KT 03/M05 A3025 RMK A01 T00261049  RH  058%=      5-min Rain = 0
KBR1 110343Z 15008KT 03/M05 A3025 RMK A01 T00251050  RH  058%=      5-min Rain = 0
KBR1 110344Z 15007KT 03/M05 A3025 RMK A01 T00251050  RH  057%=      5-min Rain = 0
KBR1 110345Z 15008KT 02/M05 A3025 RMK A01 T00241050  RH  058%=      5-min Rain = 0
KBR1 110346Z 15008KT 02/M05 A3025 RMK A01 T00231051  RH  058%=      5-min Rain = 0
KBR1 110347Z 15008KT 02/M05 A3025 RMK A01 T00221051  RH  059%=      5-min Rain = 0
KBR1 110348Z 15008KT 02/M05 A3025 RMK A01 T00211051  RH  059%=      5-min Rain = 0
KBR1 110349Z 15008KT 02/M05 A3026 RMK A01 T00211051  RH  059%=      5-min Rain = 0
KBR1 110350Z 15008KT 02/M05 A3026 RMK A01 T00201051  RH  059%=      5-min Rain = 0
KBR1 110351Z 15007KT 02/M05 A3026 RMK A01 T00191052  RH  059%=      5-min Rain = 0
KBR1 110352Z 15007KT 02/M05 A3026 RMK A01 T00191052  RH  059%=      5-min Rain = 0
KBR1 110353Z 15007KT 02/M05 A3026 RMK A01 T00191052  RH  059%=      5-min Rain = 0
KBR1 110354Z 15006KT 02/M05 A3026 RMK A01 T00181053  RH  059%=      5-min Rain = 0
KBR1 110355Z 15006KT 02/M05 A3026 RMK A01 T00171053  RH  060%=      5-min Rain = 0
KBR1 110356Z 15006KT 02/M05 A3026 RMK A01 T00161053  RH  060%=      5-min Rain = 0
KBR1 110357Z 15006KT 01/M05 A3026 RMK A01 T00141054  RH  061%=      5-min Rain = 0
KBR1 110358Z 15006KT 01/M05 A3026 RMK A01 T00131054  RH  061%=      5-min Rain = 0
KBR1 110359Z 15006KT 01/M05 A3026 RMK A01 T00121054  RH  061%=      5-min Rain = 0
KBR1 110400Z 15006KT 01/M06 A3026 RMK A01 T00111055  RH  062%=      5-min Rain = 0
KBR1 110401Z 15006KT 01/M06 A3026 RMK A01 T00101055  RH  062%=      5-min Rain = 0
KBR1 110402Z 15006KT 01/M06 A3026 RMK A01 T00091055  RH  062%=      5-min Rain = 0
KBR1 110403Z 15006KT 01/M06 A3026 RMK A01 T00091055  RH  062%=      5-min Rain = 0
KBR1 110404Z 15006KT 01/M06 A3026 RMK A01 T00081055  RH  063%=      5-min Rain = 0
KBR1 110405Z 15006KT 01/M06 A3026 RMK A01 T00071055  RH  063%=      5-min Rain = 0
KBR1 110406Z 15006KT 01/M06 A3026 RMK A01 T00071055  RH  063%=      5-min Rain = 0
KBR1 110407Z 15006KT 01/M06 A3026 RMK A01 T00061055  RH  063%=      5-min Rain = 0
KBR1 110408Z 15007KT 01/M06 A3026 RMK A01 T00061055  RH  063%=      5-min Rain = 0
KBR1 110409Z 15007KT 01/M06 A3026 RMK A01 T00061055  RH  064%=      5-min Rain = 0
KBR1 110410Z 15007KT 01/M06 A3026 RMK A01 T00061055  RH  064%=      5-min Rain = 0
KBR1 110411Z 14007KT 01/M06 A3026 RMK A01 T00061055  RH  064%=      5-min Rain = 0
KBR1 110412Z 14007KT 01/M06 A3026 RMK A01 T00051056  RH  064%=      5-min Rain = 0
KBR1 110413Z 15007KT 01/M06 A3026 RMK A01 T00061056  RH  063%=      5-min Rain = 0
KBR1 110414Z 15007KT 01/M06 A3026 RMK A01 T00061056  RH  063%=      5-min Rain = 0
KBR1 110415Z 14007KT 01/M06 A3026 RMK A01 T00071056  RH  063%=      5-min Rain = 0
KBR1 110416Z 14007KT 01/M06 A3026 RMK A01 T00071056  RH  063%=      5-min Rain = 0
KBR1 110417Z 14007KT 01/M06 A3026 RMK A01 T00071056  RH  063%=      5-min Rain = 0
KBR1 110418Z 15007KT 01/M06 A3026 RMK A01 T00071056  RH  063%=      5-min Rain = 0
KBR1 110419Z 15007KT 01/M06 A3026 RMK A01 T00071057  RH  063%=      5-min Rain = 0
KBR1 110420Z 15007KT 01/M06 A3026 RMK A01 T00071057  RH  063%=      5-min Rain = 0
KBR1 110421Z 15006KT 01/M06 A3026 RMK A01 T00061057  RH  063%=      5-min Rain = 0
KBR1 110422Z 15007KT 01/M06 A3026 RMK A01 T00051057  RH  063%=      5-min Rain = 0
KBR1 110423Z 15007KT 01/M06 A3026 RMK A01 T00051057  RH  063%=      5-min Rain = 0
KBR1 110424Z 15007KT 00/M06 A3026 RMK A01 T00041058  RH  063%=      5-min Rain = 0
KBR1 110425Z 15007KT 00/M06 A3026 RMK A01 T00041058  RH  063%=      5-min Rain = 0
KBR1 110426Z 15007KT 00/M06 A3026 RMK A01 T00041057  RH  063%=      5-min Rain = 0
KBR1 110427Z 15008KT 00/M06 A3026 RMK A01 T00031058  RH  064%=      5-min Rain = 0
KBR1 110428Z 15007KT 00/M06 A3026 RMK A01 T00041057  RH  064%=      5-min Rain = 0
KBR1 110429Z 14008KT 00/M06 A3026 RMK A01 T00031058  RH  063%=      5-min Rain = 0
KBR1 110430Z 15008KT 00/M06 A3026 RMK A01 T00041057  RH  063%=      5-min Rain = 0
KBR1 110431Z 15008KT 00/M06 A3026 RMK A01 T00031058  RH  064%=      5-min Rain = 0
KBR1 110432Z 14008KT 00/M06 A3026 RMK A01 T00031058  RH  063%=      5-min Rain = 0
KBR1 110433Z 14008KT 00/M06 A3026 RMK A01 T00041057  RH  063%=      5-min Rain = 0
KBR1 110434Z 14008KT 00/M06 A3026 RMK A01 T00041058  RH  063%=      5-min Rain = 0
KBR1 110435Z 14008KT 00/M06 A3026 RMK A01 T00041058  RH  063%=      5-min Rain = 0
KBR1 110436Z 14008KT 00/M06 A3026 RMK A01 T00041058  RH  063%=      5-min Rain = 0
KBR1 110437Z 14008KT 00/M06 A3026 RMK A01 T00041058  RH  063%=      5-min Rain = 0
KBR1 110438Z 14008KT 00/M06 A3026 RMK A01 T00031058  RH  063%=      5-min Rain = 0
KBR1 110439Z 14008KT 00/M06 A3026 RMK A01 T00031058  RH  063%=      5-min Rain = 0
KBR1 110440Z 14008KT 00/M06 A3026 RMK A01 T00031058  RH  063%=      5-min Rain = 0
KBR1 110441Z 14008KT 00/M06 A3026 RMK A01 T00031059  RH  063%=      5-min Rain = 0
KBR1 110442Z 14008KT 00/M06 A3026 RMK A01 T00021059  RH  063%=      5-min Rain = 0
KBR1 110443Z 14008KT 00/M06 A3026 RMK A01 T00021059  RH  064%=      5-min Rain = 0
KBR1 110444Z 14008KT 00/M06 A3026 RMK A01 T00021059  RH  064%=      5-min Rain = 0
KBR1 110445Z 14008KT 00/M06 A3026 RMK A01 T00011059  RH  064%=      5-min Rain = 0
KBR1 110446Z 14008KT 00/M06 A3026 RMK A01 T00011059  RH  064%=      5-min Rain = 0
KBR1 110447Z 14008KT 00/06 A3026 RMK A01 T00000-60  RH  064%=      5-min Rain = 0
KBR1 110448Z 14008KT 00/06 A3026 RMK A01 T00000-59  RH  064%=      5-min Rain = 0
KBR1 110449Z 14007KT 00/06 A3026 RMK A01 T00000-59  RH  064%=      5-min Rain = 0
KBR1 110450Z 15007KT 00/06 A3026 RMK A01 T00000-59  RH  064%=      5-min Rain = 0
KBR1 110451Z 15007KT 00/06 A3026 RMK A01 T00000-59  RH  064%=      5-min Rain = 0
KBR1 110452Z 15007KT 00/06 A3026 RMK A01 T00000-60  RH  064%=      5-min Rain = 0
KBR1 110453Z 15007KT 00/06 A3026 RMK A01 T00-00-60  RH  064%=      5-min Rain = 0
KBR1 110454Z 15006KT M00/M06 A3026 RMK A01 T10011060  RH  064%=      5-min Rain = 0
KBR1 110455Z 15006KT M00/M06 A3027 RMK A01 T10011060  RH  064%=      5-min Rain = 0
KBR1 110456Z 14006KT M00/M06 A3027 RMK A01 T10021060  RH  065%=      5-min Rain = 0
KBR1 110457Z 14006KT M00/M06 A3027 RMK A01 T10021060  RH  065%=      5-min Rain = 0
KBR1 110458Z 14006KT M00/M06 A3027 RMK A01 T10021061  RH  065%=      5-min Rain = 0
KBR1 110459Z 14006KT M00/M06 A3027 RMK A01 T10021061  RH  065%=      5-min Rain = 0
KBR1 110500Z 14006KT M00/M06 A3027 RMK A01 T10021061  RH  065%=      5-min Rain = 0
KBR1 110501Z 14006KT M00/M06 A3026 RMK A01 T10031061  RH  065%=      5-min Rain = 0
KBR1 110502Z 14006KT M00/M06 A3027 RMK A01 T10031062  RH  065%=      5-min Rain = 0
KBR1 110503Z 14006KT M00/M06 A3027 RMK A01 T10041062  RH  065%=      5-min Rain = 0
KBR1 110504Z 14006KT M01/M06 A3026 RMK A01 T10051062  RH  065%=      5-min Rain = 0
KBR1 110505Z 14006KT M01/M06 A3026 RMK A01 T10061063  RH  065%=      5-min Rain = 0
KBR1 110506Z 14006KT M01/M06 A3026 RMK A01 T10071063  RH  066%=      5-min Rain = 0
KBR1 110507Z 14007KT M01/M06 A3026 RMK A01 T10071062  RH  066%=      5-min Rain = 0
KBR1 110508Z 14006KT M01/M06 A3026 RMK A01 T10071062  RH  066%=      5-min Rain = 0
KBR1 110509Z 14006KT M01/M06 A3026 RMK A01 T10071062  RH  066%=      5-min Rain = 0
KBR1 110510Z 14006KT M01/M06 A3026 RMK A01 T10071061  RH  067%=      5-min Rain = 0
KBR1 110511Z 14007KT M01/M06 A3026 RMK A01 T10071061  RH  067%=      5-min Rain = 0
KBR1 110512Z 14007KT M01/M06 A3026 RMK A01 T10081062  RH  067%=      5-min Rain = 0
KBR1 110513Z 14007KT M01/M06 A3026 RMK A01 T10081061  RH  067%=      5-min Rain = 0
KBR1 110514Z 14007KT M01/M06 A3026 RMK A01 T10091061  RH  068%=      5-min Rain = 0
KBR1 110515Z 14007KT M01/M06 A3026 RMK A01 T10091060  RH  068%=      5-min Rain = 0
KBR1 110516Z 14006KT M01/M06 A3026 RMK A01 T10081060  RH  068%=      5-min Rain = 0
KBR1 110517Z 14006KT M01/M06 A3026 RMK A01 T10081060  RH  068%=      5-min Rain = 0
KBR1 110518Z 14006KT M01/M06 A3027 RMK A01 T10071059  RH  068%=      5-min Rain = 0
KBR1 110519Z 14006KT M01/M06 A3027 RMK A01 T10071059  RH  068%=      5-min Rain = 0
KBR1 110520Z 14006KT M01/M06 A3027 RMK A01 T10071060  RH  067%=      5-min Rain = 0
KBR1 110521Z 14006KT M01/M06 A3027 RMK A01 T10071060  RH  067%=      5-min Rain = 0
KBR1 110522Z 14006KT M01/M06 A3027 RMK A01 T10071060  RH  067%=      5-min Rain = 0
KBR1 110523Z 14006KT M01/M06 A3027 RMK A01 T10081061  RH  067%=      5-min Rain = 0
KBR1 110524Z 14006KT M01/M06 A3027 RMK A01 T10081061  RH  067%=      5-min Rain = 0
KBR1 110525Z 14006KT M01/M06 A3026 RMK A01 T10081061  RH  067%=      5-min Rain = 0
KBR1 110526Z 14006KT M01/M06 A3026 RMK A01 T10081061  RH  068%=      5-min Rain = 0
KBR1 110527Z 14006KT M01/M06 A3026 RMK A01 T10081060  RH  068%=      5-min Rain = 0
KBR1 110528Z 14006KT M01/M06 A3026 RMK A01 T10081061  RH  068%=      5-min Rain = 0
KBR1 110529Z 14006KT M01/M06 A3026 RMK A01 T10081060  RH  067%=      5-min Rain = 0
KBR1 110530Z 14006KT M01/M06 A3026 RMK A01 T10071060  RH  067%=      5-min Rain = 0
KBR1 110531Z 14006KT M01/M06 A3026 RMK A01 T10071060  RH  067%=      5-min Rain = 0
KBR1 110532Z 14007KT M01/M06 A3027 RMK A01 T10071060  RH  068%=      5-min Rain = 0
KBR1 110533Z 15007KT M01/M06 A3027 RMK A01 T10081060  RH  068%=      5-min Rain = 0
KBR1 110534Z 15007KT M01/M06 A3027 RMK A01 T10081060  RH  068%=      5-min Rain = 0
KBR1 110535Z 15007KT M01/M06 A3027 RMK A01 T10081060  RH  068%=      5-min Rain = 0
KBR1 110536Z 15007KT M01/M06 A3027 RMK A01 T10081060  RH  068%=      5-min Rain = 0
KBR1 110537Z 15007KT M01/M06 A3027 RMK A01 T10081060  RH  068%=      5-min Rain = 0
KBR1 110538Z 15007KT M01/M06 A3027 RMK A01 T10081060  RH  068%=      5-min Rain = 0
KBR1 110539Z 15007KT M01/M06 A3027 RMK A01 T10091060  RH  068%=      5-min Rain = 0
KBR1 110540Z 15008KT M01/M06 A3027 RMK A01 T10081059  RH  068%=      5-min Rain = 0
KBR1 110541Z 15007KT M01/M06 A3027 RMK A01 T10091059  RH  069%=      5-min Rain = 0
KBR1 110542Z 15007KT M01/M06 A3027 RMK A01 T10091058  RH  069%=      5-min Rain = 0
KBR1 110543Z 15007KT M01/M06 A3027 RMK A01 T10091058  RH  069%=      5-min Rain = 0
KBR1 110544Z 15007KT M01/M06 A3026 RMK A01 T10091058  RH  069%=      5-min Rain = 0
KBR1 110545Z 15007KT M01/M06 A3026 RMK A01 T10091058  RH  069%=      5-min Rain = 0
KBR1 110546Z 15006KT M01/M06 A3026 RMK A01 T10101058  RH  069%=      5-min Rain = 0
KBR1 110547Z 15006KT M01/M06 A3026 RMK A01 T10101059  RH  070%=      5-min Rain = 0
KBR1 110548Z 15006KT M01/M06 A3026 RMK A01 T10101059  RH  070%=      5-min Rain = 0
KBR1 110549Z 15006KT M01/M06 A3027 RMK A01 T10101059  RH  070%=      5-min Rain = 0
KBR1 110550Z 16006KT M01/M06 A3027 RMK A01 T10111060  RH  070%=      5-min Rain = 0
KBR1 110551Z 15006KT M01/M06 A3027 RMK A01 T10111060  RH  070%=      5-min Rain = 0
KBR1 110552Z 15006KT M01/M06 A3027 RMK A01 T10111059  RH  070%=      5-min Rain = 0
KBR1 110553Z 16006KT M01/M06 A3027 RMK A01 T10101059  RH  069%=      5-min Rain = 0
KBR1 110554Z 16006KT M01/M06 A3027 RMK A01 T10101059  RH  069%=      5-min Rain = 0
KBR1 110555Z 16006KT M01/M06 A3027 RMK A01 T10101059  RH  069%=      5-min Rain = 0
KBR1 110556Z 16006KT M01/M06 A3027 RMK A01 T10091059  RH  069%=      5-min Rain = 0
KBR1 110557Z 16006KT M01/M06 A3027 RMK A01 T10071058  RH  068%=      5-min Rain = 0
KBR1 110558Z 16006KT M01/M06 A3027 RMK A01 T10071058  RH  068%=      5-min Rain = 0
KBR1 110559Z 16006KT M01/M06 A3027 RMK A01 T10061058  RH  068%=      5-min Rain = 0

Page generated in 0.0715 seconds.